Wetterdaten: Sonntag, 06.10.2019
Datum Zeit Temp. Aussen Temp. o. S. +5cm Feuchte Auss Luftdruck Regen Sonnenschein Regendauer Solar Windben Empfang
06.10.2019 00:00 8,6 C 8,3 C 0,0 C 92 % 1019,3 hPa 0,0 l/m 0 min 0 min 0 W/m 0,0 km/h (0 Bft) 97,87 %
06.10.2019 00:02 8,6 C 8,3 C 0,0 C 92 % 1019,3 hPa 0,0 l/m 0 min 0 min 0 W/m 3,2 km/h (1 Bft) 97,14 %
06.10.2019 00:04 8,7 C 8,3 C 0,0 C 92 % 1019,2 hPa 0,0 l/m 0 min 0 min 0 W/m 0,0 km/h (0 Bft) 95,74 %
06.10.2019 00:08 8,7 C 8,3 C 0,0 C 92 % 1019,2 hPa 0,0 l/m 0 min 0 min 0 W/m 3,2 km/h (1 Bft) 96,77 %
06.10.2019 00:10 8,7 C 8,3 C 0,0 C 91 % 1019,1 hPa 0,0 l/m 0 min 0 min 0 W/m 3,2 km/h (1 Bft) 95,74 %
06.10.2019 00:12 8,7 C 8,3 C 0,0 C 91 % 1019,0 hPa 0,0 l/m 0 min 0 min 0 W/m 0,0 km/h (0 Bft) 100,00 %
06.10.2019 00:14 8,7 C 8,3 C 0,0 C 91 % 1019,0 hPa 0,0 l/m 0 min 0 min 0 W/m 0,0 km/h (0 Bft) 97,87 %
06.10.2019 00:16 8,7 C 8,3 C 0,0 C 91 % 1019,0 hPa 0,0 l/m 0 min 0 min 0 W/m 0,0 km/h (0 Bft) 100,00 %
06.10.2019 00:18 8,7 C 8,3 C 0,0 C 91 % 1018,9 hPa 0,0 l/m 0 min 0 min 0 W/m 0,0 km/h (0 Bft) 97,87 %
06.10.2019 00:20 8,7 C 8,3 C 0,0 C 91 % 1019,0 hPa 0,0 l/m 0 min 0 min 0 W/m 3,2 km/h (1 Bft) 100,00 %
06.10.2019 00:22 8,7 C 8,3 C 0,0 C 91 % 1018,9 hPa 0,0 l/m 0 min 0 min 0 W/m 3,2 km/h (1 Bft) 100,00 %
06.10.2019 00:24 8,7 C 8,3 C 0,0 C 91 % 1018,9 hPa 0,0 l/m 0 min 0 min 0 W/m 0,0 km/h (0 Bft) 97,87 %
06.10.2019 00:26 8,7 C 8,3 C 0,0 C 91 % 1018,9 hPa 0,0 l/m 0 min 0 min 0 W/m 3,2 km/h (1 Bft) 97,87 %
06.10.2019 00:28 8,7 C 8,3 C 0,0 C 91 % 1018,8 hPa 0,0 l/m 0 min 0 min 0 W/m 3,2 km/h (1 Bft) 97,87 %
06.10.2019 00:30 8,7 C 8,3 C 0,0 C 91 % 1018,8 hPa 0,0 l/m 0 min 0 min 0 W/m 0,0 km/h (0 Bft) 97,87 %
06.10.2019 00:32 8,7 C 8,3 C 0,0 C 91 % 1018,8 hPa 0,0 l/m 0 min 0 min 0 W/m 0,0 km/h (0 Bft) 97,83 %
06.10.2019 00:34 8,8 C 8,3 C 0,0 C 91 % 1018,7 hPa 0,0 l/m 0 min 0 min 0 W/m 0,0 km/h (0 Bft) 95,74 %
06.10.2019 00:36 8,8 C 8,3 C 0,0 C 91 % 1018,7 hPa 0,0 l/m 0 min 0 min 0 W/m 3,2 km/h (1 Bft) 97,87 %
06.10.2019 00:38 8,8 C 8,3 C 0,0 C 91 % 1018,6 hPa 0,0 l/m 0 min 0 min 0 W/m 0,0 km/h (0 Bft) 97,87 %
06.10.2019 00:40 8,8 C 8,3 C 0,0 C 91 % 1018,6 hPa 0,0 l/m 0 min 0 min 0 W/m 3,2 km/h (1 Bft) 97,87 %
06.10.2019 00:42 8,8 C 8,3 C 0,0 C 91 % 1018,6 hPa 0,0 l/m 0 min 0 min 0 W/m 3,2 km/h (1 Bft) 95,65 %
06.10.2019 00:44 8,8 C 8,3 C 0,0 C 91 % 1018,6 hPa 0,0 l/m 0 min 0 min 0 W/m 0,0 km/h (0 Bft) 97,87 %
06.10.2019 00:46 8,8 C 7,8 C 0,0 C 91 % 1018,5 hPa 0,0 l/m 0 min 0 min 0 W/m 3,2 km/h (1 Bft) 97,87 %
06.10.2019 00:48 8,8 C 7,8 C 0,0 C 91 % 1018,5 hPa 0,0 l/m 0 min 0 min 0 W/m 3,2 km/h (1 Bft) 97,87 %
06.10.2019 00:50 8,8 C 8,3 C 0,0 C 91 % 1018,6 hPa 0,0 l/m 0 min 0 min 0 W/m 6,4 km/h (2 Bft) 97,87 %
06.10.2019 00:52 8,8 C 8,3 C 0,0 C 90 % 1018,6 hPa 0,0 l/m 0 min 0 min 0 W/m 3,2 km/h (1 Bft) 95,74 %
06.10.2019 00:54 8,8 C 8,3 C 0,0 C 90 % 1018,6 hPa 0,0 l/m 0 min 0 min 0 W/m 3,2 km/h (1 Bft) 95,65 %
06.10.2019 00:56 8,8 C 8,3 C 0,0 C 90 % 1018,5 hPa 0,0 l/m 0 min 0 min 0 W/m 3,2 km/h (1 Bft) 97,87 %
06.10.2019 00:58 8,8 C 8,3 C 0,0 C 90 % 1018,5 hPa 0,0 l/m 0 min 0 min 0 W/m 3,2 km/h (1 Bft) 97,87 %
06.10.2019 01:00 8,8 C 8,3 C 0,0 C 90 % 1018,5 hPa 0,0 l/m 0 min 0 min 0 W/m 3,2 km/h (1 Bft) 97,87 %
06.10.2019 01:02 8,8 C 8,3 C 0,0 C 90 % 1018,4 hPa 0,0 l/m 0 min 0 min 0 W/m 9,7 km/h (2 Bft) 97,87 %
06.10.2019 01:04 8,9 C 8,3 C 0,0 C 90 % 1018,5 hPa 0,0 l/m 0 min 0 min 0 W/m 3,2 km/h (1 Bft) 97,87 %
06.10.2019 01:06 8,9 C 8,3 C 0,0 C 90 % 1018,4 hPa 0,0 l/m 0 min 0 min 0 W/m 3,2 km/h (1 Bft) 97,83 %
06.10.2019 01:08 8,9 C 8,3 C 0,0 C 90 % 1018,4 hPa 0,0 l/m 0 min 0 min 0 W/m 3,2 km/h (1 Bft) 95,74 %
06.10.2019 01:10 8,9 C 8,3 C 0,0 C 89 % 1018,4 hPa 0,0 l/m 0 min 0 min 0 W/m 6,4 km/h (2 Bft) 97,87 %
06.10.2019 01:12 9,0 C 8,3 C 0,0 C 89 % 1018,3 hPa 0,0 l/m 0 min 0 min 0 W/m 6,4 km/h (2 Bft) 100,00 %
06.10.2019 01:14 9,0 C 8,3 C 0,0 C 89 % 1018,3 hPa 0,0 l/m 0 min 0 min 0 W/m 3,2 km/h (1 Bft) 100,00 %
06.10.2019 01:16 9,0 C 8,3 C 0,0 C 89 % 1018,3 hPa 0,0 l/m 0 min 0 min 0 W/m 6,4 km/h (2 Bft) 97,87 %
06.10.2019 01:18 9,1 C 8,3 C 0,0 C 89 % 1018,2 hPa 0,0 l/m 0 min 0 min 0 W/m 3,2 km/h (1 Bft) 100,00 %
06.10.2019 01:20 9,1 C 8,3 C 0,0 C 89 % 1018,2 hPa 0,0 l/m 0 min 0 min 0 W/m 6,4 km/h (2 Bft) 100,00 %
06.10.2019 01:22 9,1 C 8,3 C 0,0 C 89 % 1018,2 hPa 0,0 l/m 0 min 0 min 0 W/m 3,2 km/h (1 Bft) 100,00 %
06.10.2019 01:24 9,1 C 8,3 C 0,0 C 89 % 1018,2 hPa 0,0 l/m 0 min 0 min 0 W/m 6,4 km/h (2 Bft) 100,00 %
06.10.2019 01:26 9,1 C 8,3 C 0,0 C 89 % 1018,2 hPa 0,0 l/m 0 min 0 min 0 W/m 3,2 km/h (1 Bft) 100,00 %
06.10.2019 01:28 9,1 C 8,3 C 0,0 C 89 % 1018,2 hPa 0,0 l/m 0 min 0 min 0 W/m 3,2 km/h (1 Bft) 100,00 %
06.10.2019 01:30 9,1 C 8,3 C 0,0 C 89 % 1018,2 hPa 0,0 l/m 0 min 0 min 0 W/m 6,4 km/h (2 Bft) 100,00 %
06.10.2019 01:32 9,1 C 8,3 C 0,0 C 89 % 1018,2 hPa 0,0 l/m 0 min 0 min 0 W/m 6,4 km/h (2 Bft) 100,00 %
06.10.2019 01:34 9,1 C 8,3 C 0,0 C 89 % 1018,2 hPa 0,0 l/m 0 min 0 min 0 W/m 6,4 km/h (2 Bft) 100,00 %
06.10.2019 01:36 9,1 C 8,3 C 0,0 C 89 % 1018,2 hPa 0,0 l/m 0 min 0 min 0 W/m 6,4 km/h (2 Bft) 100,00 %
06.10.2019 01:38 9,1 C 8,3 C 0,0 C 88 % 1018,2 hPa 0,0 l/m 0 min 0 min 0 W/m 6,4 km/h (2 Bft) 100,00 %
06.10.2019 01:40 9,1 C 8,3 C 0,0 C 88 % 1018,2 hPa 0,0 l/m 0 min 0 min 0 W/m 6,4 km/h (2 Bft) 100,00 %
06.10.2019 01:42 9,1 C 8,3 C 0,0 C 88 % 1018,2 hPa 0,0 l/m 0 min 0 min 0 W/m 6,4 km/h (2 Bft) 97,83 %
06.10.2019 01:44 9,2 C 8,3 C 0,0 C 88 % 1018,2 hPa 0,0 l/m 0 min 0 min 0 W/m 6,4 km/h (2 Bft) 100,00 %
06.10.2019 01:46 9,2 C 8,3 C 0,0 C 88 % 1018,2 hPa 0,0 l/m 0 min 0 min 0 W/m 16,1 km/h (3 Bft) 100,00 %
06.10.2019 01:48 9,2 C 8,3 C 0,0 C 88 % 1018,2 hPa 0,0 l/m 0 min 0 min 0 W/m 16,1 km/h (3 Bft) 100,00 %
06.10.2019 01:50 9,2 C 8,3 C 0,0 C 88 % 1018,2 hPa 0,0 l/m 0 min 0 min 0 W/m 19,3 km/h (3 Bft) 100,00 %
06.10.2019 01:52 9,2 C 8,9 C 0,0 C 88 % 1018,3 hPa 0,0 l/m 0 min 0 min 0 W/m 19,3 km/h (3 Bft) 97,83 %
06.10.2019 01:54 9,2 C 8,9 C 0,0 C 88 % 1018,3 hPa 0,0 l/m 0 min 0 min 0 W/m 12,9 km/h (3 Bft) 100,00 %
06.10.2019 01:56 9,2 C 8,9 C 0,0 C 88 % 1018,3 hPa 0,0 l/m 0 min 0 min 0 W/m 12,9 km/h (3 Bft) 100,00 %
06.10.2019 01:58 9,2 C 8,9 C 0,0 C 88 % 1018,3 hPa 0,0 l/m 0 min 0 min 0 W/m 16,1 km/h (3 Bft) 100,00 %
06.10.2019 02:00 9,2 C 8,9 C 0,0 C 87 % 1018,3 hPa 0,0 l/m 0 min 0 min 0 W/m 12,9 km/h (3 Bft) 100,00 %
06.10.2019 02:02 9,2 C 8,9 C 0,0 C 88 % 1018,2 hPa 0,0 l/m 0 min 0 min 0 W/m 6,4 km/h (2 Bft) 95,74 %
06.10.2019 02:04 9,3 C 8,9 C 0,0 C 88 % 1018,1 hPa 0,0 l/m 0 min 0 min 0 W/m 9,7 km/h (2 Bft) 95,65 %
06.10.2019 02:06 9,3 C 8,9 C 0,0 C 88 % 1018,2 hPa 0,0 l/m 0 min 0 min 0 W/m 12,9 km/h (3 Bft) 95,74 %
06.10.2019 02:08 9,3 C 8,9 C 0,0 C 87 % 1018,2 hPa 0,0 l/m 0 min 0 min 0 W/m 12,9 km/h (3 Bft) 95,74 %
06.10.2019 02:10 9,3 C 8,3 C 0,0 C 87 % 1018,2 hPa 0,0 l/m 0 min 0 min 0 W/m 12,9 km/h (3 Bft) 93,62 %
06.10.2019 02:12 9,3 C 8,3 C 0,0 C 87 % 1018,1 hPa 0,0 l/m 0 min 0 min 0 W/m 16,1 km/h (3 Bft) 95,74 %
06.10.2019 02:14 9,3 C 8,3 C 0,0 C 87 % 1018,1 hPa 0,0 l/m 0 min 0 min 0 W/m 12,9 km/h (3 Bft) 95,74 %
06.10.2019 02:16 9,3 C 8,3 C 0,0 C 87 % 1018,2 hPa 0,0 l/m 0 min 0 min 0 W/m 16,1 km/h (3 Bft) 95,65 %
06.10.2019 02:18 9,3 C 8,3 C 0,0 C 87 % 1018,2 hPa 0,0 l/m 0 min 0 min 0 W/m 19,3 km/h (3 Bft) 95,83 %
06.10.2019 02:20 9,3 C 8,3 C 0,0 C 87 % 1018,2 hPa 0,0 l/m 0 min 0 min 0 W/m 12,9 km/h (3 Bft) 93,75 %
06.10.2019 02:22 9,3 C 8,3 C 0,0 C 87 % 1018,2 hPa 0,0 l/m 0 min 0 min 0 W/m 6,4 km/h (2 Bft) 95,83 %
06.10.2019 02:24 9,3 C 8,3 C 0,0 C 87 % 1018,2 hPa 0,0 l/m 0 min 0 min 0 W/m 12,9 km/h (3 Bft) 95,83 %
06.10.2019 02:26 9,3 C 8,3 C 0,0 C 87 % 1018,1 hPa 0,0 l/m 0 min 0 min 0 W/m 12,9 km/h (3 Bft) 93,62 %
06.10.2019 02:28 9,3 C 8,3 C 0,0 C 87 % 1018,1 hPa 0,0 l/m 0 min 0 min 0 W/m 12,9 km/h (3 Bft) 95,83 %
06.10.2019 02:30 9,3 C 8,3 C 0,0 C 87 % 1018,1 hPa 0,0 l/m 0 min 0 min 0 W/m 16,1 km/h (3 Bft) 93,62 %
06.10.2019 02:32 9,3 C 8,3 C 0,0 C 87 % 1018,1 hPa 0,0 l/m 0 min 0 min 0 W/m 16,1 km/h (3 Bft) 95,74 %
06.10.2019 02:34 9,3 C 8,3 C 0,0 C 87 % 1018,1 hPa 0,0 l/m 0 min 0 min 0 W/m 6,4 km/h (2 Bft) 95,65 %
06.10.2019 02:36 9,3 C 8,3 C 0,0 C 87 % 1018,1 hPa 0,0 l/m 0 min 0 min 0 W/m 6,4 km/h (2 Bft) 95,74 %
06.10.2019 02:38 9,3 C 8,3 C 0,0 C 87 % 1018,1 hPa 0,0 l/m 0 min 0 min 0 W/m 6,4 km/h (2 Bft) 95,74 %
06.10.2019 02:40 9,3 C 8,3 C 0,0 C 88 % 1018,2 hPa 0,0 l/m 0 min 0 min 0 W/m 6,4 km/h (2 Bft) 95,12 %
06.10.2019 02:42 9,3 C 8,3 C 0,0 C 88 % 1018,2 hPa 0,0 l/m 0 min 0 min 0 W/m 3,2 km/h (1 Bft) 93,75 %
06.10.2019 02:44 9,2 C 8,3 C 0,0 C 88 % 1018,1 hPa 0,0 l/m 0 min 0 min 0 W/m 6,4 km/h (2 Bft) 91,67 %
06.10.2019 02:46 9,2 C 8,3 C 0,0 C 88 % 1018,1 hPa 0,0 l/m 0 min 0 min 0 W/m 6,4 km/h (2 Bft) 97,92 %
06.10.2019 02:48 9,2 C 8,3 C 0,0 C 88 % 1018,1 hPa 0,0 l/m 0 min 0 min 0 W/m 16,1 km/h (3 Bft) 95,74 %
06.10.2019 02:50 9,2 C 8,3 C 0,0 C 88 % 1018,0 hPa 0,0 l/m 0 min 0 min 0 W/m 3,2 km/h (1 Bft) 91,30 %
06.10.2019 02:52 9,2 C 8,3 C 0,0 C 88 % 1018,1 hPa 0,0 l/m 0 min 0 min 0 W/m 6,4 km/h (2 Bft) 95,74 %
06.10.2019 02:54 9,2 C 8,3 C 0,0 C 88 % 1018,0 hPa 0,0 l/m 0 min 0 min 0 W/m 6,4 km/h (2 Bft) 97,87 %
06.10.2019 02:56 9,2 C 8,3 C 0,0 C 88 % 1018,0 hPa 0,0 l/m 0 min 0 min 0 W/m 6,4 km/h (2 Bft) 97,87 %
06.10.2019 02:58 9,2 C 8,3 C 0,0 C 88 % 1017,9 hPa 0,0 l/m 0 min 0 min 0 W/m 16,1 km/h (3 Bft) 93,62 %
06.10.2019 03:00 9,2 C 8,3 C 0,0 C 88 % 1017,8 hPa 0,0 l/m 0 min 0 min 0 W/m 12,9 km/h (3 Bft) 93,62 %
06.10.2019 03:02 9,2 C 8,3 C 0,0 C 88 % 1017,7 hPa 0,0 l/m 0 min 0 min 0 W/m 12,9 km/h (3 Bft) 97,83 %
06.10.2019 03:04 9,1 C 8,3 C 0,0 C 88 % 1017,7 hPa 0,0 l/m 0 min 0 min 0 W/m 12,9 km/h (3 Bft) 97,87 %
06.10.2019 03:06 9,1 C 8,3 C 0,0 C 88 % 1017,8 hPa 0,0 l/m 0 min 0 min 0 W/m 19,3 km/h (3 Bft) 97,87 %
06.10.2019 03:08 9,1 C 8,3 C 0,0 C 88 % 1017,8 hPa 0,0 l/m 0 min 0 min 0 W/m 12,9 km/h (3 Bft) 97,87 %
06.10.2019 03:10 9,1 C 8,3 C 0,0 C 88 % 1017,8 hPa 0,0 l/m 0 min 0 min 0 W/m 6,4 km/h (2 Bft) 95,74 %
06.10.2019 03:12 9,1 C 8,3 C 0,0 C 88 % 1017,7 hPa 0,0 l/m 0 min 0 min 0 W/m 6,4 km/h (2 Bft) 97,87 %
06.10.2019 03:14 9,1 C 8,3 C 0,0 C 88 % 1017,7 hPa 0,0 l/m 0 min 0 min 0 W/m 6,4 km/h (2 Bft) 97,83 %
06.10.2019 03:16 9,1 C 8,3 C 0,0 C 88 % 1017,8 hPa 0,0 l/m 0 min 0 min 0 W/m 16,1 km/h (3 Bft) 95,74 %
06.10.2019 03:18 9,1 C 8,3 C 0,0 C 88 % 1017,7 hPa 0,0 l/m 0 min 0 min 0 W/m 6,4 km/h (2 Bft) 97,87 %
06.10.2019 03:20 9,1 C 8,3 C 0,0 C 88 % 1017,7 hPa 0,0 l/m 0 min 0 min 0 W/m 6,4 km/h (2 Bft) 95,74 %
06.10.2019 03:22 9,1 C 8,3 C 0,0 C 88 % 1017,8 hPa 0,0 l/m 0 min 0 min 0 W/m 16,1 km/h (3 Bft) 97,87 %
06.10.2019 03:24 9,1 C 8,3 C 0,0 C 88 % 1017,7 hPa 0,0 l/m 0 min 0 min 0 W/m 12,9 km/h (3 Bft) 97,83 %
06.10.2019 03:26 9,1 C 8,3 C 0,0 C 88 % 1017,8 hPa 0,0 l/m 0 min 0 min 0 W/m 16,1 km/h (3 Bft) 95,74 %
06.10.2019 03:28 9,1 C 8,3 C 0,0 C 88 % 1017,8 hPa 0,0 l/m 0 min 0 min 0 W/m 12,9 km/h (3 Bft) 97,92 %
06.10.2019 03:30 9,1 C 8,3 C 0,0 C 88 % 1017,8 hPa 0,0 l/m 0 min 0 min 0 W/m 12,9 km/h (3 Bft) 97,87 %
06.10.2019 03:32 9,1 C 8,3 C 0,0 C 88 % 1017,8 hPa 0,0 l/m 0 min 0 min 0 W/m 6,4 km/h (2 Bft) 97,87 %
06.10.2019 03:34 9,1 C 8,3 C 0,0 C 88 % 1017,8 hPa 0,0 l/m 0 min 0 min 0 W/m 16,1 km/h (3 Bft) 97,87 %
06.10.2019 03:36 9,1 C 8,3 C 0,0 C 88 % 1017,8 hPa 0,0 l/m 0 min 0 min 0 W/m 6,4 km/h (2 Bft) 95,65 %
06.10.2019 03:38 9,1 C 8,3 C 0,0 C 88 % 1017,9 hPa 0,0 l/m 0 min 0 min 0 W/m 6,4 km/h (2 Bft) 97,87 %
06.10.2019 03:40 9,1 C 8,3 C 0,0 C 88 % 1018,0 hPa 0,0 l/m 0 min 0 min 0 W/m 6,4 km/h (2 Bft) 97,87 %
06.10.2019 03:42 9,1 C 8,3 C 0,0 C 88 % 1018,0 hPa 0,0 l/m 0 min 0 min 0 W/m 3,2 km/h (1 Bft) 95,74 %
06.10.2019 03:44 9,1 C 8,3 C 0,0 C 88 % 1018,0 hPa 0,0 l/m 0 min 0 min 0 W/m 6,4 km/h (2 Bft) 97,87 %
06.10.2019 03:46 9,1 C 8,3 C 0,0 C 88 % 1018,1 hPa 0,0 l/m 0 min 0 min 0 W/m 3,2 km/h (1 Bft) 97,87 %
06.10.2019 03:48 9,1 C 8,3 C 0,0 C 88 % 1018,1 hPa 0,0 l/m 0 min 0 min 0 W/m 6,4 km/h (2 Bft) 97,83 %
06.10.2019 03:50 9,1 C 8,3 C 0,0 C 88 % 1018,1 hPa 0,0 l/m 0 min 0 min 0 W/m 6,4 km/h (2 Bft) 100,00 %
06.10.2019 03:52 9,1 C 8,3 C 0,0 C 88 % 1018,0 hPa 0,0 l/m 0 min 0 min 0 W/m 12,9 km/h (3 Bft) 100,00 %
06.10.2019 03:54 9,1 C 8,3 C 0,0 C 88 % 1017,9 hPa 0,0 l/m 0 min 0 min 0 W/m 6,4 km/h (2 Bft) 100,00 %
06.10.2019 03:56 9,1 C 8,3 C 0,0 C 88 % 1017,8 hPa 0,0 l/m 0 min 0 min 0 W/m 6,4 km/h (2 Bft) 100,00 %
06.10.2019 03:58 9,1 C 8,3 C 0,0 C 88 % 1017,7 hPa 0,0 l/m 0 min 0 min 0 W/m 6,4 km/h (2 Bft) 100,00 %
06.10.2019 04:00 9,1 C 8,3 C 0,0 C 88 % 1017,7 hPa 0,0 l/m 0 min 0 min 0 W/m 6,4 km/h (2 Bft) 100,00 %
06.10.2019 04:02 9,1 C 8,3 C 0,0 C 88 % 1017,6 hPa 0,0 l/m 0 min 0 min 0 W/m 12,9 km/h (3 Bft) 100,00 %
06.10.2019 04:04 9,1 C 8,3 C 0,0 C 88 % 1017,6 hPa 0,0 l/m 0 min 0 min 0 W/m 6,4 km/h (2 Bft) 100,00 %
06.10.2019 04:06 9,1 C 8,3 C 0,0 C 88 % 1017,5 hPa 0,0 l/m 0 min 0 min 0 W/m 12,9 km/h (3 Bft) 100,00 %
06.10.2019 04:08 9,1 C 8,3 C 0,0 C 88 % 1017,5 hPa 0,0 l/m 0 min 0 min 0 W/m 6,4 km/h (2 Bft) 100,00 %
06.10.2019 04:10 9,1 C 8,3 C 0,0 C 88 % 1017,5 hPa 0,0 l/m 0 min 0 min 0 W/m 12,9 km/h (3 Bft) 100,00 %
06.10.2019 04:12 9,1 C 8,3 C 0,0 C 88 % 1017,5 hPa 0,0 l/m 0 min 0 min 0 W/m 16,1 km/h (3 Bft) 100,00 %
06.10.2019 04:14 9,1 C 8,3 C 0,0 C 88 % 1017,4 hPa 0,0 l/m 0 min 0 min 0 W/m 6,4 km/h (2 Bft) 97,87 %
06.10.2019 04:16 9,1 C 8,3 C 0,0 C 88 % 1017,4 hPa 0,0 l/m 0 min 0 min 0 W/m 9,7 km/h (2 Bft) 100,00 %
06.10.2019 04:18 9,1 C 8,3 C 0,0 C 88 % 1017,5 hPa 0,0 l/m 0 min 0 min 0 W/m 6,4 km/h (2 Bft) 100,00 %
06.10.2019 04:20 9,1 C 8,3 C 0,0 C 88 % 1017,4 hPa 0,0 l/m 0 min 0 min 0 W/m 9,7 km/h (2 Bft) 97,87 %
06.10.2019 04:22 9,1 C 8,3 C 0,0 C 88 % 1017,4 hPa 0,0 l/m 0 min 0 min 0 W/m 6,4 km/h (2 Bft) 100,00 %
06.10.2019 04:24 9,1 C 8,3 C 0,0 C 88 % 1017,3 hPa 0,0 l/m 0 min 0 min 0 W/m 6,4 km/h (2 Bft) 100,00 %
06.10.2019 04:26 9,1 C 8,3 C 0,0 C 88 % 1017,3 hPa 0,0 l/m 0 min 0 min 0 W/m 12,9 km/h (3 Bft) 100,00 %
06.10.2019 04:28 9,1 C 8,3 C 0,0 C 88 % 1017,3 hPa 0,0 l/m 0 min 0 min 0 W/m 6,4 km/h (2 Bft) 100,00 %
06.10.2019 04:30 9,1 C 8,3 C 0,0 C 88 % 1017,3 hPa 0,0 l/m 0 min 0 min 0 W/m 12,9 km/h (3 Bft) 100,00 %
06.10.2019 04:32 9,1 C 8,3 C 0,0 C 88 % 1017,3 hPa 0,0 l/m 0 min 0 min 0 W/m 12,9 km/h (3 Bft) 100,00 %
06.10.2019 04:34 9,1 C 8,3 C 0,0 C 88 % 1017,3 hPa 0,0 l/m 0 min 0 min 0 W/m 22,5 km/h (4 Bft) 100,00 %
06.10.2019 04:36 9,1 C 8,3 C 0,0 C 88 % 1017,3 hPa 0,0 l/m 0 min 0 min 0 W/m 12,9 km/h (3 Bft) 100,00 %
06.10.2019 04:38 9,1 C 8,3 C 0,0 C 88 % 1017,2 hPa 0,0 l/m 0 min 0 min 0 W/m 22,5 km/h (4 Bft) 97,87 %
06.10.2019 04:40 9,1 C 8,3 C 0,0 C 87 % 1017,1 hPa 0,0 l/m 0 min 0 min 0 W/m 25,7 km/h (4 Bft) 97,87 %
06.10.2019 04:42 9,1 C 8,3 C 0,0 C 87 % 1017,1 hPa 0,0 l/m 0 min 0 min 0 W/m 19,3 km/h (3 Bft) 97,87 %
06.10.2019 04:44 9,1 C 8,3 C 0,0 C 87 % 1017,1 hPa 0,0 l/m 0 min 0 min 0 W/m 25,7 km/h (4 Bft) 95,74 %
06.10.2019 04:46 9,1 C 8,3 C 0,0 C 87 % 1017,0 hPa 0,0 l/m 0 min 0 min 0 W/m 22,5 km/h (4 Bft) 97,83 %
06.10.2019 04:48 9,1 C 8,3 C 0,0 C 87 % 1016,9 hPa 0,0 l/m 0 min 0 min 0 W/m 16,1 km/h (3 Bft) 97,87 %
06.10.2019 04:50 9,1 C 8,9 C 0,0 C 87 % 1016,8 hPa 0,0 l/m 0 min 0 min 0 W/m 35,4 km/h (5 Bft) 97,87 %
06.10.2019 04:52 9,2 C 8,9 C 0,0 C 87 % 1016,7 hPa 0,0 l/m 0 min 0 min 0 W/m 22,5 km/h (4 Bft) 93,62 %
06.10.2019 04:54 9,2 C 8,9 C 0,0 C 87 % 1016,6 hPa 0,0 l/m 0 min 0 min 0 W/m 22,5 km/h (4 Bft) 93,62 %
06.10.2019 04:56 9,2 C 8,9 C 0,0 C 87 % 1016,7 hPa 0,0 l/m 0 min 0 min 0 W/m 29,0 km/h (5 Bft) 97,87 %
06.10.2019 04:58 9,2 C 8,3 C 0,0 C 86 % 1016,7 hPa 0,0 l/m 0 min 0 min 0 W/m 16,1 km/h (3 Bft) 95,65 %
06.10.2019 05:00 9,2 C 8,3 C 0,0 C 86 % 1016,7 hPa 0,0 l/m 0 min 0 min 0 W/m 16,1 km/h (3 Bft) 97,87 %
06.10.2019 05:02 9,2 C 8,3 C 0,0 C 86 % 1016,7 hPa 0,0 l/m 0 min 0 min 0 W/m 16,1 km/h (3 Bft) 93,62 %
06.10.2019 05:04 9,2 C 8,3 C 0,0 C 86 % 1016,7 hPa 0,0 l/m 0 min 0 min 0 W/m 19,3 km/h (3 Bft) 97,87 %
06.10.2019 05:06 9,3 C 8,3 C 0,0 C 86 % 1016,7 hPa 0,0 l/m 0 min 0 min 0 W/m 19,3 km/h (3 Bft) 97,87 %
06.10.2019 05:08 9,3 C 8,3 C 0,0 C 86 % 1016,6 hPa 0,0 l/m 0 min 0 min 0 W/m 19,3 km/h (3 Bft) 98,15 %
06.10.2019 05:10 9,3 C 8,3 C 0,0 C 86 % 1016,6 hPa 0,0 l/m 0 min 0 min 0 W/m 12,9 km/h (3 Bft) 97,87 %
06.10.2019 05:12 9,3 C 8,3 C 0,0 C 86 % 1016,7 hPa 0,0 l/m 0 min 0 min 0 W/m 22,5 km/h (4 Bft) 97,87 %
06.10.2019 05:14 9,3 C 8,3 C 0,0 C 86 % 1016,7 hPa 0,0 l/m 0 min 0 min 0 W/m 25,7 km/h (4 Bft) 97,87 %
06.10.2019 05:16 9,3 C 8,3 C 0,0 C 86 % 1016,6 hPa 0,0 l/m 0 min 0 min 0 W/m 22,5 km/h (4 Bft) 95,65 %
06.10.2019 05:18 9,3 C 8,3 C 0,0 C 86 % 1016,6 hPa 0,0 l/m 0 min 0 min 0 W/m 19,3 km/h (3 Bft) 97,87 %
06.10.2019 05:20 9,3 C 8,3 C 0,0 C 86 % 1016,5 hPa 0,0 l/m 0 min 0 min 0 W/m 22,5 km/h (4 Bft) 97,87 %
06.10.2019 05:22 9,3 C 8,3 C 0,0 C 86 % 1016,5 hPa 0,0 l/m 0 min 0 min 0 W/m 25,7 km/h (4 Bft) 97,87 %
06.10.2019 05:24 9,3 C 8,3 C 0,0 C 86 % 1016,5 hPa 0,0 l/m 0 min 0 min 0 W/m 19,3 km/h (3 Bft) 100,00 %
06.10.2019 05:26 9,3 C 8,9 C 0,0 C 86 % 1016,5 hPa 0,0 l/m 0 min 0 min 0 W/m 16,1 km/h (3 Bft) 97,87 %
06.10.2019 05:28 9,3 C 8,9 C 0,0 C 86 % 1016,4 hPa 0,0 l/m 0 min 0 min 0 W/m 12,9 km/h (3 Bft) 97,83 %
06.10.2019 05:30 9,3 C 8,3 C 0,0 C 86 % 1016,4 hPa 0,0 l/m 0 min 0 min 0 W/m 12,9 km/h (3 Bft) 93,62 %
06.10.2019 05:32 9,3 C 8,3 C 0,0 C 86 % 1016,5 hPa 0,0 l/m 0 min 0 min 0 W/m 19,3 km/h (3 Bft) 95,74 %
06.10.2019 05:34 9,3 C 8,9 C 0,0 C 86 % 1016,5 hPa 0,0 l/m 0 min 0 min 0 W/m 16,1 km/h (3 Bft) 95,74 %
06.10.2019 05:36 9,3 C 8,3 C 0,0 C 86 % 1016,5 hPa 0,0 l/m 0 min 0 min 0 W/m 6,4 km/h (2 Bft) 95,74 %
06.10.2019 05:38 9,3 C 8,3 C 0,0 C 86 % 1016,4 hPa 0,0 l/m 0 min 0 min 0 W/m 19,3 km/h (3 Bft) 97,37 %
06.10.2019 05:40 9,3 C 8,9 C 0,0 C 86 % 1016,4 hPa 0,0 l/m 0 min 0 min 0 W/m 16,1 km/h (3 Bft) 93,62 %
06.10.2019 05:42 9,3 C 8,3 C 0,0 C 86 % 1016,3 hPa 0,0 l/m 0 min 0 min 0 W/m 25,7 km/h (4 Bft) 97,83 %
06.10.2019 05:44 9,3 C 8,3 C 0,0 C 86 % 1016,3 hPa 0,0 l/m 0 min 0 min 0 W/m 25,7 km/h (4 Bft) 95,74 %
06.10.2019 05:46 9,3 C 8,9 C 0,0 C 86 % 1016,3 hPa 0,0 l/m 0 min 0 min 0 W/m 16,1 km/h (3 Bft) 95,74 %
06.10.2019 05:48 9,3 C 8,3 C 0,0 C 86 % 1016,3 hPa 0,0 l/m 0 min 0 min 0 W/m 19,3 km/h (3 Bft) 93,62 %
06.10.2019 05:50 9,3 C 8,3 C 0,0 C 86 % 1016,3 hPa 0,0 l/m 0 min 0 min 0 W/m 19,3 km/h (3 Bft) 95,74 %
06.10.2019 05:52 9,3 C 8,3 C 0,0 C 86 % 1016,3 hPa 0,0 l/m 0 min 0 min 0 W/m 19,3 km/h (3 Bft) 95,65 %
06.10.2019 05:54 9,3 C 8,3 C 0,0 C 86 % 1016,3 hPa 0,0 l/m 0 min 0 min 0 W/m 25,7 km/h (4 Bft) 95,74 %
06.10.2019 05:56 9,3 C 8,3 C 0,0 C 86 % 1016,2 hPa 0,0 l/m 0 min 0 min 0 W/m 19,3 km/h (3 Bft) 95,74 %
06.10.2019 05:58 9,3 C 8,3 C 0,0 C 86 % 1016,2 hPa 0,0 l/m 0 min 0 min 0 W/m 19,3 km/h (3 Bft) 95,74 %
06.10.2019 06:00 9,3 C 8,3 C 0,0 C 86 % 1016,1 hPa 0,0 l/m 0 min 0 min 0 W/m 29,0 km/h (5 Bft) 93,62 %
06.10.2019 06:02 9,3 C 8,3 C 0,0 C 86 % 1016,1 hPa 0,0 l/m 0 min 0 min 0 W/m 19,3 km/h (3 Bft) 95,74 %
06.10.2019 06:04 9,3 C 8,3 C 0,0 C 86 % 1016,0 hPa 0,0 l/m 0 min 0 min 0 W/m 16,1 km/h (3 Bft) 95,65 %
06.10.2019 06:08 9,3 C 8,3 C 0,0 C 86 % 1015,9 hPa 0,0 l/m 0 min 0 min 0 W/m 19,3 km/h (3 Bft) 93,55 %
06.10.2019 06:10 9,3 C 8,3 C 0,0 C 86 % 1015,9 hPa 0,0 l/m 0 min 0 min 0 W/m 12,9 km/h (3 Bft) 95,74 %
06.10.2019 06:12 9,3 C 8,3 C 0,0 C 86 % 1015,9 hPa 0,0 l/m 0 min 0 min 0 W/m 25,7 km/h (4 Bft) 93,62 %
06.10.2019 06:14 9,3 C 8,3 C 0,0 C 86 % 1015,9 hPa 0,0 l/m 0 min 0 min 0 W/m 19,3 km/h (3 Bft) 95,74 %
06.10.2019 06:16 9,3 C 8,3 C 0,0 C 86 % 1015,9 hPa 0,0 l/m 0 min 0 min 0 W/m 16,1 km/h (3 Bft) 95,65 %
06.10.2019 06:18 9,3 C 8,3 C 0,0 C 86 % 1015,8 hPa 0,0 l/m 0 min 0 min 0 W/m 22,5 km/h (4 Bft) 91,49 %
06.10.2019 06:20 9,3 C 8,3 C 0,0 C 86 % 1015,7 hPa 0,0 l/m 0 min 0 min 0 W/m 19,3 km/h (3 Bft) 95,74 %
06.10.2019 06:22 9,3 C 8,3 C 0,0 C 86 % 1015,7 hPa 0,0 l/m 0 min 0 min 0 W/m 29,0 km/h (5 Bft) 93,62 %
06.10.2019 06:24 9,3 C 8,3 C 0,0 C 86 % 1015,6 hPa 0,0 l/m 0 min 0 min 0 W/m 22,5 km/h (4 Bft) 95,74 %
06.10.2019 06:26 9,3 C 8,3 C 0,0 C 86 % 1015,6 hPa 0,0 l/m 0 min 0 min 0 W/m 25,7 km/h (4 Bft) 95,74 %
06.10.2019 06:28 9,3 C 8,3 C 0,0 C 86 % 1015,6 hPa 0,0 l/m 0 min 0 min 0 W/m 25,7 km/h (4 Bft) 95,65 %
06.10.2019 06:30 9,3 C 8,3 C 0,0 C 86 % 1015,6 hPa 0,0 l/m 0 min 0 min 0 W/m 19,3 km/h (3 Bft) 97,87 %
06.10.2019 06:32 9,3 C 8,3 C 0,0 C 86 % 1015,6 hPa 0,0 l/m 0 min 0 min 0 W/m 25,7 km/h (4 Bft) 100,00 %
06.10.2019 06:34 9,3 C 8,3 C 0,0 C 86 % 1015,6 hPa 0,0 l/m 0 min 0 min 0 W/m 6,4 km/h (2 Bft) 97,87 %
06.10.2019 06:36 9,3 C 8,3 C 0,0 C 86 % 1015,6 hPa 0,0 l/m 0 min 0 min 0 W/m 19,3 km/h (3 Bft) 100,00 %
06.10.2019 06:38 9,3 C 8,3 C 0,0 C 86 % 1015,5 hPa 0,0 l/m 0 min 0 min 0 W/m 19,3 km/h (3 Bft) 100,00 %
06.10.2019 06:40 9,2 C 8,3 C 0,0 C 86 % 1015,6 hPa 0,0 l/m 0 min 0 min 0 W/m 22,5 km/h (4 Bft) 100,00 %
06.10.2019 06:42 9,3 C 8,3 C 0,0 C 86 % 1015,6 hPa 0,0 l/m 0 min 0 min 0 W/m 19,3 km/h (3 Bft) 100,00 %
06.10.2019 06:44 9,2 C 8,3 C 0,0 C 86 % 1015,6 hPa 0,0 l/m 0 min 0 min 0 W/m 19,3 km/h (3 Bft) 97,87 %
06.10.2019 06:46 9,2 C 8,3 C 0,0 C 86 % 1015,5 hPa 0,0 l/m 0 min 0 min 0 W/m 22,5 km/h (4 Bft) 100,00 %
06.10.2019 06:48 9,2 C 8,3 C 0,0 C 86 % 1015,5 hPa 0,0 l/m 0 min 0 min 0 W/m 16,1 km/h (3 Bft) 100,00 %
06.10.2019 06:50 9,2 C 8,3 C 0,0 C 86 % 1015,5 hPa 0,0 l/m 0 min 0 min 0 W/m 12,9 km/h (3 Bft) 100,00 %
06.10.2019 06:52 9,2 C 8,3 C 0,0 C 86 % 1015,5 hPa 0,0 l/m 0 min 0 min 0 W/m 16,1 km/h (3 Bft) 100,00 %
06.10.2019 06:54 9,3 C 8,3 C 0,0 C 86 % 1015,5 hPa 0,0 l/m 0 min 0 min 0 W/m 19,3 km/h (3 Bft) 100,00 %
06.10.2019 06:56 9,2 C 8,3 C 0,0 C 86 % 1015,4 hPa 0,0 l/m 0 min 0 min 0 W/m 22,5 km/h (4 Bft) 100,00 %
06.10.2019 06:58 9,2 C 8,3 C 0,0 C 86 % 1015,4 hPa 0,0 l/m 0 min 0 min 0 W/m 22,5 km/h (4 Bft) 100,00 %
06.10.2019 07:00 9,2 C 8,3 C 0,0 C 86 % 1015,4 hPa 0,0 l/m 0 min 0 min 0 W/m 19,3 km/h (3 Bft) 100,00 %
06.10.2019 07:02 9,2 C 8,3 C 0,0 C 86 % 1015,4 hPa 0,0 l/m 0 min 0 min 0 W/m 25,7 km/h (4 Bft) 100,00 %
06.10.2019 07:04 9,2 C 8,3 C 0,0 C 86 % 1015,4 hPa 0,0 l/m 0 min 0 min 0 W/m 25,7 km/h (4 Bft) 100,00 %
06.10.2019 07:06 9,2 C 8,3 C 0,0 C 86 % 1015,3 hPa 0,0 l/m 0 min 0 min 0 W/m 29,0 km/h (5 Bft) 100,00 %
06.10.2019 07:08 9,2 C 8,3 C 0,0 C 85 % 1015,3 hPa 0,0 l/m 0 min 0 min 0 W/m 25,7 km/h (4 Bft) 100,00 %
06.10.2019 07:10 9,2 C 8,3 C 0,0 C 86 % 1015,3 hPa 0,0 l/m 0 min 0 min 0 W/m 25,7 km/h (4 Bft) 100,00 %
06.10.2019 07:12 9,3 C 8,3 C 0,0 C 86 % 1015,2 hPa 0,0 l/m 0 min 0 min 0 W/m 16,1 km/h (3 Bft) 100,00 %
06.10.2019 07:14 9,3 C 8,3 C 0,0 C 85 % 1015,2 hPa 0,0 l/m 0 min 0 min 0 W/m 25,7 km/h (4 Bft) 100,00 %
06.10.2019 07:16 9,3 C 8,9 C 0,0 C 85 % 1015,2 hPa 0,0 l/m 0 min 0 min 0 W/m 19,3 km/h (3 Bft) 100,00 %
06.10.2019 07:18 9,3 C 8,9 C 0,0 C 85 % 1015,2 hPa 0,0 l/m 0 min 0 min 0 W/m 25,7 km/h (4 Bft) 100,00 %
06.10.2019 07:20 9,3 C 8,3 C 0,0 C 85 % 1015,2 hPa 0,0 l/m 0 min 0 min 0 W/m 25,7 km/h (4 Bft) 100,00 %
06.10.2019 07:22 9,3 C 8,9 C 0,0 C 85 % 1015,2 hPa 0,0 l/m 0 min 0 min 0 W/m 25,7 km/h (4 Bft) 95,74 %
06.10.2019 07:24 9,3 C 8,9 C 0,0 C 85 % 1015,1 hPa 0,0 l/m 0 min 0 min 0 W/m 22,5 km/h (4 Bft) 97,87 %
06.10.2019 07:26 9,3 C 8,3 C 0,0 C 85 % 1015,1 hPa 0,0 l/m 0 min 0 min 0 W/m 16,1 km/h (3 Bft) 97,83 %
06.10.2019 07:28 9,3 C 8,3 C 0,0 C 85 % 1015,1 hPa 0,0 l/m 0 min 0 min 0 W/m 22,5 km/h (4 Bft) 97,87 %
06.10.2019 07:30 9,3 C 8,3 C 0,0 C 85 % 1015,1 hPa 0,0 l/m 0 min 0 min 0 W/m 19,3 km/h (3 Bft) 97,87 %
06.10.2019 07:32 9,3 C 8,9 C 0,0 C 85 % 1015,1 hPa 0,0 l/m 0 min 0 min 0 W/m 29,0 km/h (5 Bft) 97,87 %
06.10.2019 07:34 9,3 C 8,9 C 0,0 C 85 % 1015,1 hPa 0,0 l/m 0 min 0 min 0 W/m 6,4 km/h (2 Bft) 97,87 %
06.10.2019 07:36 9,3 C 8,9 C 0,0 C 85 % 1015,1 hPa 0,0 l/m 0 min 0 min 0 W/m 19,3 km/h (3 Bft) 95,74 %
06.10.2019 07:38 9,3 C 8,9 C 0,0 C 85 % 1015,3 hPa 0,0 l/m 0 min 0 min 0 W/m 16,1 km/h (3 Bft) 97,83 %
06.10.2019 07:40 9,3 C 8,9 C 0,0 C 85 % 1015,4 hPa 0,0 l/m 0 min 0 min 0 W/m 19,3 km/h (3 Bft) 93,62 %
06.10.2019 07:42 9,3 C 8,9 C 0,0 C 85 % 1015,4 hPa 0,0 l/m 0 min 0 min 0 W/m 19,3 km/h (3 Bft) 97,87 %
06.10.2019 07:44 9,3 C 8,9 C 0,0 C 85 % 1015,4 hPa 0,0 l/m 0 min 0 min 0 W/m 19,3 km/h (3 Bft) 97,87 %
06.10.2019 07:46 9,3 C 8,9 C 0,0 C 85 % 1015,4 hPa 0,0 l/m 0 min 0 min 0 W/m 25,7 km/h (4 Bft) 97,87 %
06.10.2019 07:48 9,4 C 8,9 C 0,0 C 85 % 1015,3 hPa 0,0 l/m 0 min 0 min 0 W/m 35,4 km/h (5 Bft) 97,87 %
06.10.2019 07:50 9,4 C 8,9 C 0,0 C 84 % 1015,3 hPa 0,0 l/m 0 min 0 min 0 W/m 22,5 km/h (4 Bft) 97,83 %
06.10.2019 07:52 9,4 C 8,9 C 0,0 C 84 % 1015,2 hPa 0,0 l/m 0 min 0 min 0 W/m 16,1 km/h (3 Bft) 97,87 %
06.10.2019 07:54 9,4 C 8,9 C 0,0 C 84 % 1015,2 hPa 0,0 l/m 0 min 0 min 0 W/m 16,1 km/h (3 Bft) 97,87 %
06.10.2019 07:56 9,4 C 8,9 C 0,0 C 84 % 1015,2 hPa 0,0 l/m 0 min 0 min 0 W/m 19,3 km/h (3 Bft) 95,74 %
06.10.2019 07:58 9,4 C 8,9 C 0,0 C 84 % 1015,2 hPa 0,0 l/m 0 min 0 min 0 W/m 16,1 km/h (3 Bft) 97,87 %
06.10.2019 08:00 9,4 C 8,9 C 0,0 C 84 % 1015,1 hPa 0,0 l/m 0 min 0 min 3 W/m 25,7 km/h (4 Bft) 97,87 %
06.10.2019 08:02 9,4 C 8,9 C 0,0 C 84 % 1015,1 hPa 0,0 l/m 0 min 0 min 5 W/m 16,1 km/h (3 Bft) 97,83 %
06.10.2019 08:04 9,4 C 8,9 C 0,0 C 84 % 1015,0 hPa 0,0 l/m 0 min 0 min 6 W/m 22,5 km/h (4 Bft) 95,74 %
06.10.2019 08:06 9,4 C 8,9 C 0,0 C 84 % 1015,0 hPa 0,0 l/m 0 min 0 min 7 W/m 19,3 km/h (3 Bft) 100,00 %
06.10.2019 08:08 9,4 C 8,9 C 0,0 C 84 % 1015,0 hPa 0,0 l/m 0 min 0 min 7 W/m 19,3 km/h (3 Bft) 100,00 %
06.10.2019 08:10 9,4 C 8,9 C 0,0 C 84 % 1015,1 hPa 0,0 l/m 0 min 0 min 7 W/m 12,9 km/h (3 Bft) 100,00 %
06.10.2019 08:12 9,5 C 8,9 C 0,0 C 84 % 1015,1 hPa 0,0 l/m 0 min 0 min 7 W/m 16,1 km/h (3 Bft) 100,00 %
06.10.2019 08:14 9,5 C 8,9 C 0,0 C 84 % 1015,1 hPa 0,0 l/m 0 min 0 min 7 W/m 19,3 km/h (3 Bft) 93,48 %
06.10.2019 08:16 9,5 C 8,9 C 0,0 C 84 % 1015,0 hPa 0,0 l/m 0 min 0 min 5 W/m 29,0 km/h (5 Bft) 97,87 %
06.10.2019 08:20 9,5 C 8,9 C 0,0 C 84 % 1015,0 hPa 0,0 l/m 0 min 0 min 5 W/m 19,3 km/h (3 Bft) 100,00 %
06.10.2019 08:22 9,5 C 8,9 C 0,0 C 84 % 1014,9 hPa 0,0 l/m 0 min 0 min 7 W/m 3,2 km/h (1 Bft) 100,00 %
06.10.2019 08:24 9,5 C 8,9 C 0,0 C 84 % 1014,9 hPa 0,0 l/m 0 min 0 min 7 W/m 16,1 km/h (3 Bft) 98,11 %
06.10.2019 08:26 9,5 C 8,9 C 0,0 C 84 % 1014,9 hPa 0,0 l/m 0 min 0 min 6 W/m 12,9 km/h (3 Bft) 91,49 %
06.10.2019 08:28 9,5 C 8,9 C 0,0 C 84 % 1014,9 hPa 0,0 l/m 0 min 0 min 5 W/m 16,1 km/h (3 Bft) 97,83 %
06.10.2019 08:30 9,5 C 8,9 C 0,0 C 84 % 1014,9 hPa 0,0 l/m 0 min 0 min 5 W/m 19,3 km/h (3 Bft) 98,18 %
06.10.2019 08:32 9,5 C 8,9 C 0,0 C 84 % 1014,8 hPa 0,0 l/m 0 min 0 min 5 W/m 19,3 km/h (3 Bft) 97,87 %
06.10.2019 08:34 9,5 C 8,9 C 0,0 C 84 % 1014,8 hPa 0,0 l/m 0 min 0 min 6 W/m 22,5 km/h (4 Bft) 97,83 %
06.10.2019 08:36 9,5 C 8,9 C 0,0 C 84 % 1014,8 hPa 0,0 l/m 0 min 0 min 8 W/m 12,9 km/h (3 Bft) 94,87 %
06.10.2019 08:38 9,5 C 8,9 C 0,0 C 84 % 1014,7 hPa 0,0 l/m 0 min 0 min 9 W/m 22,5 km/h (4 Bft) 97,83 %
06.10.2019 08:40 9,5 C 8,9 C 0,0 C 84 % 1014,7 hPa 0,0 l/m 0 min 0 min 9 W/m 25,7 km/h (4 Bft) 95,83 %
06.10.2019 08:42 9,5 C 8,9 C 0,0 C 84 % 1014,7 hPa 0,0 l/m 0 min 0 min 9 W/m 25,7 km/h (4 Bft) 95,74 %
06.10.2019 08:44 9,5 C 8,9 C 0,0 C 84 % 1014,7 hPa 0,0 l/m 0 min 0 min 9 W/m 35,4 km/h (5 Bft) 97,87 %
06.10.2019 08:46 9,5 C 8,9 C 0,0 C 84 % 1014,7 hPa 0,0 l/m 0 min 0 min 10 W/m 19,3 km/h (3 Bft) 97,87 %
06.10.2019 08:48 9,5 C 8,9 C 0,0 C 84 % 1014,8 hPa 0,0 l/m 0 min 0 min 11 W/m 19,3 km/h (3 Bft) 97,87 %
06.10.2019 08:50 9,5 C 8,9 C 0,0 C 84 % 1014,8 hPa 0,0 l/m 0 min 0 min 11 W/m 16,1 km/h (3 Bft) 95,65 %
06.10.2019 08:52 9,5 C 8,9 C 0,0 C 84 % 1014,8 hPa 0,0 l/m 0 min 0 min 12 W/m 22,5 km/h (4 Bft) 94,55 %
06.10.2019 08:54 9,5 C 8,9 C 0,0 C 83 % 1014,8 hPa 0,0 l/m 0 min 2 min 12 W/m 22,5 km/h (4 Bft) 100,00 %
06.10.2019 08:56 9,5 C 8,9 C 0,0 C 83 % 1014,8 hPa 0,0 l/m 0 min 0 min 12 W/m 19,3 km/h (3 Bft) 95,74 %
06.10.2019 08:58 9,6 C 8,9 C 0,0 C 83 % 1014,8 hPa 0,0 l/m 0 min 0 min 12 W/m 19,3 km/h (3 Bft) 95,83 %
06.10.2019 09:00 9,6 C 8,9 C 0,0 C 83 % 1014,9 hPa 0,0 l/m 0 min 2 min 12 W/m 22,5 km/h (4 Bft) 97,87 %
06.10.2019 09:02 9,6 C 8,9 C 0,0 C 83 % 1014,8 hPa 0,0 l/m 0 min 2 min 14 W/m 22,5 km/h (4 Bft) 95,65 %
06.10.2019 09:04 9,6 C 8,3 C 0,0 C 83 % 1014,8 hPa 0,0 l/m 0 min 2 min 14 W/m 12,9 km/h (3 Bft) 96,36 %
06.10.2019 09:06 9,6 C 7,8 C 0,0 C 84 % 1014,8 hPa 0,0 l/m 0 min 2 min 16 W/m 25,7 km/h (4 Bft) 94,74 %
06.10.2019 09:08 9,6 C 7,2 C 0,0 C 84 % 1014,8 hPa 0,0 l/m 0 min 2 min 18 W/m 22,5 km/h (4 Bft) 95,74 %
06.10.2019 09:10 9,6 C 7,2 C 0,0 C 84 % 1014,8 hPa 0,0 l/m 0 min 2 min 19 W/m 22,5 km/h (4 Bft) 93,62 %
06.10.2019 09:12 9,6 C 7,2 C 0,0 C 85 % 1014,8 hPa 0,2 l/m 0 min 2 min 22 W/m 16,1 km/h (3 Bft) 95,83 %
06.10.2019 09:14 9,6 C 6,7 C 0,0 C 85 % 1014,8 hPa 0,0 l/m 0 min 2 min 25 W/m 25,7 km/h (4 Bft) 95,65 %
06.10.2019 09:16 9,5 C 6,7 C 0,0 C 85 % 1014,8 hPa 0,0 l/m 0 min 2 min 28 W/m 25,7 km/h (4 Bft) 97,87 %
06.10.2019 09:18 9,5 C 6,7 C 0,0 C 86 % 1014,7 hPa 0,2 l/m 0 min 2 min 32 W/m 16,1 km/h (3 Bft) 95,74 %
06.10.2019 09:20 9,4 C 7,2 C 0,0 C 86 % 1014,7 hPa 0,0 l/m 0 min 2 min 32 W/m 16,1 km/h (3 Bft) 97,87 %
06.10.2019 09:22 9,4 C 6,7 C 0,0 C 86 % 1014,7 hPa 0,0 l/m 0 min 2 min 30 W/m 12,9 km/h (3 Bft) 91,49 %
06.10.2019 09:24 9,4 C 6,7 C 0,0 C 87 % 1014,8 hPa 0,0 l/m 0 min 2 min 27 W/m 12,9 km/h (3 Bft) 97,87 %
06.10.2019 09:26 9,3 C 6,7 C 0,0 C 87 % 1014,8 hPa 0,2 l/m 0 min 2 min 26 W/m 19,3 km/h (3 Bft) 95,65 %
06.10.2019 09:28 9,3 C 6,7 C 0,0 C 87 % 1014,8 hPa 0,0 l/m 0 min 2 min 24 W/m 25,7 km/h (4 Bft) 97,87 %
06.10.2019 09:30 9,3 C 6,7 C 0,0 C 87 % 1014,8 hPa 0,0 l/m 0 min 2 min 21 W/m 22,5 km/h (4 Bft) 95,74 %
06.10.2019 09:32 9,2 C 6,7 C 0,0 C 88 % 1014,8 hPa 0,0 l/m 0 min 2 min 21 W/m 16,1 km/h (3 Bft) 98,18 %
06.10.2019 09:34 9,2 C 6,7 C 0,0 C 88 % 1014,9 hPa 0,2 l/m 0 min 2 min 21 W/m 19,3 km/h (3 Bft) 97,83 %
06.10.2019 09:36 9,2 C 6,7 C 0,0 C 88 % 1014,9 hPa 0,0 l/m 0 min 2 min 21 W/m 16,1 km/h (3 Bft) 93,62 %
06.10.2019 09:38 9,2 C 6,7 C 0,0 C 88 % 1014,8 hPa 0,0 l/m 0 min 2 min 21 W/m 12,9 km/h (3 Bft) 97,87 %
06.10.2019 09:40 9,1 C 6,7 C 0,0 C 88 % 1014,8 hPa 0,2 l/m 0 min 2 min 21 W/m 25,7 km/h (4 Bft) 100,00 %
06.10.2019 09:42 9,1 C 6,7 C 0,0 C 89 % 1014,9 hPa 0,0 l/m 0 min 2 min 21 W/m 16,1 km/h (3 Bft) 97,87 %
06.10.2019 09:44 9,1 C 6,7 C 0,0 C 89 % 1014,9 hPa 0,0 l/m 0 min 2 min 23 W/m 22,5 km/h (4 Bft) 95,83 %
06.10.2019 09:46 9,1 C 6,7 C 0,0 C 89 % 1014,9 hPa 0,2 l/m 0 min 2 min 25 W/m 19,3 km/h (3 Bft) 95,74 %
06.10.2019 09:48 9,0 C 6,7 C 0,0 C 89 % 1014,9 hPa 0,2 l/m 0 min 2 min 26 W/m 22,5 km/h (4 Bft) 98,15 %
06.10.2019 09:50 9,0 C 6,7 C 0,0 C 89 % 1014,9 hPa 0,0 l/m 0 min 2 min 31 W/m 6,4 km/h (2 Bft) 97,37 %
06.10.2019 09:52 8,9 C 6,7 C 0,0 C 90 % 1014,9 hPa 0,2 l/m 0 min 2 min 35 W/m 16,1 km/h (3 Bft) 97,87 %
06.10.2019 09:54 8,9 C 6,7 C 0,0 C 90 % 1014,9 hPa 0,0 l/m 0 min 2 min 39 W/m 12,9 km/h (3 Bft) 95,74 %
06.10.2019 09:56 8,9 C 6,7 C 0,0 C 90 % 1014,9 hPa 0,0 l/m 0 min 2 min 39 W/m 16,1 km/h (3 Bft) 97,92 %
06.10.2019 09:58 8,9 C 6,7 C 0,0 C 90 % 1014,9 hPa 0,0 l/m 0 min 2 min 36 W/m 6,4 km/h (2 Bft) 97,87 %
06.10.2019 10:00 8,8 C 6,7 C 0,0 C 90 % 1014,9 hPa 0,2 l/m 0 min 2 min 36 W/m 16,1 km/h (3 Bft) 97,83 %
06.10.2019 10:02 8,8 C 6,7 C 0,0 C 91 % 1014,8 hPa 0,0 l/m 0 min 2 min 37 W/m 12,9 km/h (3 Bft) 97,87 %
06.10.2019 10:04 8,8 C 6,7 C 0,0 C 91 % 1014,8 hPa 0,0 l/m 0 min 2 min 37 W/m 16,1 km/h (3 Bft) 97,87 %
06.10.2019 10:08 8,8 C 6,7 C 0,0 C 91 % 1014,8 hPa 0,0 l/m 0 min 4 min 37 W/m 19,3 km/h (3 Bft) 95,74 %
06.10.2019 10:10 8,8 C 6,7 C 0,0 C 91 % 1014,7 hPa 0,2 l/m 0 min 2 min 39 W/m 6,4 km/h (2 Bft) 95,74 %
06.10.2019 10:12 8,7 C 6,7 C 0,0 C 91 % 1014,8 hPa 0,0 l/m 0 min 2 min 41 W/m 16,1 km/h (3 Bft) 97,83 %
06.10.2019 10:14 8,7 C 6,7 C 0,0 C 91 % 1014,8 hPa 0,0 l/m 0 min 2 min 40 W/m 12,9 km/h (3 Bft) 95,74 %
06.10.2019 10:16 8,7 C 6,7 C 0,0 C 92 % 1014,7 hPa 0,0 l/m 0 min 2 min 37 W/m 16,1 km/h (3 Bft) 97,87 %
06.10.2019 10:18 8,7 C 6,7 C 0,0 C 92 % 1014,7 hPa 0,2 l/m 0 min 2 min 34 W/m 12,9 km/h (3 Bft) 95,74 %
06.10.2019 10:20 8,7 C 6,7 C 0,0 C 92 % 1014,6 hPa 0,0 l/m 0 min 2 min 34 W/m 25,7 km/h (4 Bft) 97,87 %
06.10.2019 10:22 8,6 C 6,7 C 0,0 C 92 % 1014,6 hPa 0,2 l/m 0 min 2 min 37 W/m 12,9 km/h (3 Bft) 97,87 %
06.10.2019 10:24 8,6 C 6,7 C 0,0 C 92 % 1014,6 hPa 0,0 l/m 0 min 2 min 37 W/m 16,1 km/h (3 Bft) 97,83 %
06.10.2019 10:26 8,6 C 6,7 C 0,0 C 92 % 1014,6 hPa 0,0 l/m 0 min 2 min 39 W/m 16,1 km/h (3 Bft) 95,74 %
06.10.2019 10:28 8,6 C 6,7 C 0,0 C 92 % 1014,6 hPa 0,0 l/m 0 min 2 min 40 W/m 19,3 km/h (3 Bft) 95,74 %
06.10.2019 10:30 8,6 C 7,2 C 0,0 C 92 % 1014,5 hPa 0,2 l/m 0 min 2 min 40 W/m 12,9 km/h (3 Bft) 95,74 %
06.10.2019 10:32 8,6 C 7,2 C 0,0 C 93 % 1014,5 hPa 0,2 l/m 0 min 2 min 42 W/m 16,1 km/h (3 Bft) 95,74 %
06.10.2019 10:34 8,6 C 7,2 C 0,0 C 93 % 1014,4 hPa 0,0 l/m 0 min 2 min 44 W/m 6,4 km/h (2 Bft) 93,48 %
06.10.2019 10:36 8,6 C 7,2 C 0,0 C 93 % 1014,4 hPa 0,2 l/m 0 min 2 min 44 W/m 16,1 km/h (3 Bft) 97,87 %
06.10.2019 10:38 8,6 C 7,2 C 0,0 C 93 % 1014,4 hPa 0,2 l/m 0 min 2 min 47 W/m 16,1 km/h (3 Bft) 97,87 %
06.10.2019 10:40 8,6 C 7,2 C 0,0 C 93 % 1014,3 hPa 0,0 l/m 0 min 2 min 52 W/m 19,3 km/h (3 Bft) 95,74 %
06.10.2019 10:42 8,6 C 7,2 C 0,0 C 93 % 1014,3 hPa 0,2 l/m 0 min 2 min 55 W/m 16,1 km/h (3 Bft) 93,62 %
06.10.2019 10:44 8,6 C 7,2 C 0,0 C 93 % 1014,2 hPa 0,2 l/m 0 min 2 min 56 W/m 19,3 km/h (3 Bft) 97,87 %
06.10.2019 10:46 8,6 C 7,2 C 0,0 C 94 % 1014,2 hPa 0,0 l/m 0 min 2 min 58 W/m 19,3 km/h (3 Bft) 97,83 %
06.10.2019 10:48 8,5 C 7,2 C 0,0 C 94 % 1014,1 hPa 0,0 l/m 0 min 2 min 62 W/m 19,3 km/h (3 Bft) 95,74 %
06.10.2019 10:50 8,5 C 7,2 C 0,0 C 94 % 1014,2 hPa 0,2 l/m 0 min 2 min 60 W/m 22,5 km/h (4 Bft) 95,74 %
06.10.2019 10:52 8,5 C 7,2 C 0,0 C 94 % 1014,2 hPa 0,0 l/m 0 min 2 min 62 W/m 19,3 km/h (3 Bft) 95,74 %
06.10.2019 10:54 8,5 C 7,2 C 0,0 C 94 % 1014,1 hPa 0,2 l/m 0 min 2 min 63 W/m 16,1 km/h (3 Bft) 95,74 %
06.10.2019 10:56 8,5 C 7,2 C 0,0 C 94 % 1014,1 hPa 0,0 l/m 0 min 2 min 63 W/m 22,5 km/h (4 Bft) 95,74 %
06.10.2019 10:58 8,4 C 7,2 C 0,0 C 94 % 1014,1 hPa 0,0 l/m 0 min 2 min 63 W/m 16,1 km/h (3 Bft) 97,83 %
06.10.2019 11:00 8,4 C 7,2 C 0,0 C 94 % 1014,1 hPa 0,0 l/m 0 min 2 min 62 W/m 12,9 km/h (3 Bft) 97,87 %
06.10.2019 11:02 8,4 C 7,2 C 0,0 C 94 % 1014,1 hPa 0,0 l/m 0 min 2 min 59 W/m 16,1 km/h (3 Bft) 95,74 %
06.10.2019 11:04 8,4 C 7,2 C 0,0 C 95 % 1014,1 hPa 0,2 l/m 0 min 2 min 55 W/m 16,1 km/h (3 Bft) 95,74 %
06.10.2019 11:06 8,4 C 7,2 C 0,0 C 95 % 1014,1 hPa 0,0 l/m 0 min 2 min 54 W/m 19,3 km/h (3 Bft) 97,87 %
06.10.2019 11:08 8,4 C 7,2 C 0,0 C 95 % 1014,0 hPa 0,2 l/m 0 min 2 min 56 W/m 22,5 km/h (4 Bft) 97,87 %
06.10.2019 11:10 8,4 C 7,2 C 0,0 C 95 % 1014,1 hPa 0,0 l/m 0 min 2 min 58 W/m 35,4 km/h (5 Bft) 97,83 %
06.10.2019 11:12 8,4 C 7,2 C 0,0 C 95 % 1014,0 hPa 0,0 l/m 0 min 2 min 58 W/m 19,3 km/h (3 Bft) 97,26 %
06.10.2019 11:14 8,3 C 7,2 C 0,0 C 95 % 1014,0 hPa 0,0 l/m 0 min 2 min 58 W/m 16,1 km/h (3 Bft) 96,55 %
06.10.2019 11:16 8,3 C 7,2 C 0,0 C 95 % 1014,0 hPa 0,2 l/m 0 min 2 min 62 W/m 19,3 km/h (3 Bft) 97,87 %
06.10.2019 11:18 8,3 C 7,2 C 0,0 C 95 % 1014,0 hPa 0,0 l/m 0 min 2 min 60 W/m 25,7 km/h (4 Bft) 97,87 %
06.10.2019 11:20 8,3 C 7,2 C 0,0 C 95 % 1014,0 hPa 0,2 l/m 0 min 2 min 56 W/m 19,3 km/h (3 Bft) 97,87 %
06.10.2019 11:22 8,3 C 7,2 C 0,0 C 95 % 1014,0 hPa 0,0 l/m 0 min 2 min 53 W/m 22,5 km/h (4 Bft) 97,83 %
06.10.2019 11:24 8,3 C 7,2 C 0,0 C 95 % 1013,9 hPa 0,0 l/m 0 min 2 min 51 W/m 12,9 km/h (3 Bft) 97,87 %
06.10.2019 11:26 8,3 C 7,2 C 0,0 C 95 % 1013,9 hPa 0,2 l/m 0 min 2 min 48 W/m 22,5 km/h (4 Bft) 97,87 %
06.10.2019 11:28 8,3 C 7,2 C 0,0 C 95 % 1013,9 hPa 0,0 l/m 0 min 2 min 49 W/m 29,0 km/h (5 Bft) 97,87 %
06.10.2019 11:30 8,3 C 7,2 C 0,0 C 95 % 1013,9 hPa 0,2 l/m 0 min 2 min 49 W/m 22,5 km/h (4 Bft) 95,74 %
06.10.2019 11:32 8,3 C 7,2 C 0,0 C 95 % 1013,9 hPa 0,0 l/m 0 min 2 min 53 W/m 22,5 km/h (4 Bft) 97,87 %
06.10.2019 11:34 8,3 C 7,2 C 0,0 C 95 % 1013,9 hPa 0,0 l/m 0 min 2 min 55 W/m 45,1 km/h (6 Bft) 95,65 %
06.10.2019 11:36 8,3 C 7,2 C 0,0 C 95 % 1013,9 hPa 0,0 l/m 0 min 2 min 56 W/m 25,7 km/h (4 Bft) 97,87 %
06.10.2019 11:38 8,3 C 7,2 C 0,0 C 96 % 1013,8 hPa 0,2 l/m 0 min 2 min 58 W/m 22,5 km/h (4 Bft) 100,00 %
06.10.2019 11:40 8,3 C 7,2 C 0,0 C 96 % 1013,8 hPa 0,0 l/m 0 min 2 min 59 W/m 29,0 km/h (5 Bft) 96,36 %
06.10.2019 11:42 8,3 C 7,2 C 0,0 C 96 % 1013,7 hPa 0,2 l/m 0 min 2 min 62 W/m 38,6 km/h (5 Bft) 97,87 %
06.10.2019 11:44 8,3 C 7,2 C 0,0 C 96 % 1013,6 hPa 0,0 l/m 0 min 2 min 65 W/m 22,5 km/h (4 Bft) 97,87 %
06.10.2019 11:46 8,3 C 7,2 C 0,0 C 96 % 1013,6 hPa 0,0 l/m 0 min 2 min 70 W/m 25,7 km/h (4 Bft) 97,87 %
06.10.2019 11:48 8,3 C 7,2 C 0,0 C 96 % 1013,6 hPa 0,0 l/m 0 min 2 min 74 W/m 29,0 km/h (5 Bft) 100,00 %
06.10.2019 11:50 8,3 C 7,2 C 0,0 C 96 % 1013,6 hPa 0,2 l/m 0 min 2 min 74 W/m 22,5 km/h (4 Bft) 100,00 %
06.10.2019 11:52 8,3 C 7,2 C 0,0 C 96 % 1013,5 hPa 0,0 l/m 0 min 2 min 76 W/m 19,3 km/h (3 Bft) 100,00 %
06.10.2019 11:54 8,3 C 7,2 C 0,0 C 96 % 1013,5 hPa 0,0 l/m 0 min 2 min 72 W/m 48,3 km/h (6 Bft) 97,87 %
06.10.2019 11:56 8,3 C 7,2 C 0,0 C 96 % 1013,5 hPa 0,2 l/m 0 min 2 min 68 W/m 38,6 km/h (5 Bft) 100,00 %
06.10.2019 11:58 8,3 C 7,2 C 0,0 C 96 % 1013,5 hPa 0,0 l/m 0 min 2 min 63 W/m 25,7 km/h (4 Bft) 97,87 %
06.10.2019 12:00 8,3 C 7,2 C 0,0 C 96 % 1013,6 hPa 0,0 l/m 0 min 2 min 56 W/m 19,3 km/h (3 Bft) 100,00 %
06.10.2019 12:02 8,3 C 7,2 C 0,0 C 96 % 1013,6 hPa 0,0 l/m 0 min 2 min 56 W/m 16,1 km/h (3 Bft) 100,00 %
06.10.2019 12:04 8,3 C 7,2 C 0,0 C 96 % 1013,5 hPa 0,0 l/m 0 min 2 min 58 W/m 25,7 km/h (4 Bft) 100,00 %
06.10.2019 12:08 8,3 C 7,2 C 0,0 C 96 % 1013,4 hPa 0,0 l/m 0 min 4 min 71 W/m 32,2 km/h (5 Bft) 97,87 %
06.10.2019 12:10 8,3 C 7,2 C 0,0 C 96 % 1013,4 hPa 0,0 l/m 0 min 2 min 76 W/m 19,3 km/h (3 Bft) 100,00 %
06.10.2019 12:12 8,3 C 7,2 C 0,0 C 96 % 1013,4 hPa 0,0 l/m 0 min 2 min 77 W/m 35,4 km/h (5 Bft) 100,00 %
06.10.2019 12:14 8,4 C 7,2 C 0,0 C 96 % 1013,3 hPa 0,0 l/m 0 min 2 min 75 W/m 29,0 km/h (5 Bft) 100,00 %
06.10.2019 12:16 8,4 C 7,2 C 0,0 C 96 % 1013,3 hPa 0,0 l/m 0 min 2 min 67 W/m 19,3 km/h (3 Bft) 100,00 %
06.10.2019 12:18 8,4 C 7,2 C 0,0 C 96 % 1013,2 hPa 0,2 l/m 0 min 2 min 69 W/m 25,7 km/h (4 Bft) 100,00 %
06.10.2019 12:20 8,4 C 7,2 C 0,0 C 96 % 1013,3 hPa 0,0 l/m 0 min 2 min 72 W/m 38,6 km/h (5 Bft) 100,00 %
06.10.2019 12:22 8,4 C 7,2 C 0,0 C 96 % 1013,3 hPa 0,0 l/m 0 min 2 min 71 W/m 29,0 km/h (5 Bft) 100,00 %
06.10.2019 12:24 8,4 C 7,2 C 0,0 C 97 % 1013,3 hPa 0,0 l/m 0 min 2 min 61 W/m 19,3 km/h (3 Bft) 100,00 %
06.10.2019 12:26 8,4 C 7,2 C 0,0 C 97 % 1013,3 hPa 0,0 l/m 0 min 2 min 65 W/m 25,7 km/h (4 Bft) 97,87 %
06.10.2019 12:28 8,4 C 7,2 C 0,0 C 97 % 1013,3 hPa 0,0 l/m 0 min 2 min 67 W/m 25,7 km/h (4 Bft) 100,00 %
06.10.2019 12:30 8,5 C 7,2 C 0,0 C 97 % 1013,3 hPa 0,0 l/m 0 min 0 min 78 W/m 22,5 km/h (4 Bft) 97,87 %
06.10.2019 12:32 8,5 C 7,8 C 0,0 C 97 % 1013,3 hPa 0,0 l/m 0 min 0 min 73 W/m 19,3 km/h (3 Bft) 100,00 %
06.10.2019 12:34 8,5 C 7,8 C 0,0 C 97 % 1013,2 hPa 0,0 l/m 0 min 0 min 75 W/m 22,5 km/h (4 Bft) 95,74 %
06.10.2019 12:36 8,5 C 7,2 C 0,0 C 97 % 1013,2 hPa 0,0 l/m 0 min 0 min 68 W/m 25,7 km/h (4 Bft) 97,83 %
06.10.2019 12:38 8,5 C 7,2 C 0,0 C 97 % 1013,3 hPa 0,0 l/m 0 min 0 min 73 W/m 25,7 km/h (4 Bft) 100,00 %
06.10.2019 12:40 8,5 C 7,8 C 0,0 C 97 % 1013,2 hPa 0,0 l/m 0 min 0 min 81 W/m 22,5 km/h (4 Bft) 97,87 %
06.10.2019 12:42 8,5 C 7,8 C 0,0 C 97 % 1013,2 hPa 0,0 l/m 0 min 0 min 89 W/m 25,7 km/h (4 Bft) 97,87 %
06.10.2019 12:44 8,6 C 7,8 C 0,0 C 97 % 1013,2 hPa 0,0 l/m 0 min 0 min 84 W/m 25,7 km/h (4 Bft) 97,87 %
06.10.2019 12:46 8,6 C 7,8 C 0,0 C 97 % 1013,1 hPa 0,0 l/m 0 min 0 min 83 W/m 22,5 km/h (4 Bft) 97,87 %
06.10.2019 12:48 8,6 C 7,8 C 0,0 C 97 % 1013,1 hPa 0,0 l/m 0 min 0 min 84 W/m 22,5 km/h (4 Bft) 93,48 %
06.10.2019 12:50 8,6 C 7,8 C 0,0 C 97 % 1013,1 hPa 0,0 l/m 0 min 0 min 102 W/m 25,7 km/h (4 Bft) 95,74 %
06.10.2019 12:52 8,6 C 7,8 C 0,0 C 97 % 1013,1 hPa 0,0 l/m 0 min 0 min 103 W/m 29,0 km/h (5 Bft) 95,74 %
06.10.2019 12:54 8,6 C 7,8 C 0,0 C 97 % 1013,0 hPa 0,0 l/m 0 min 0 min 109 W/m 22,5 km/h (4 Bft) 93,62 %
06.10.2019 12:56 8,6 C 7,8 C 0,0 C 97 % 1012,9 hPa 0,2 l/m 0 min 0 min 120 W/m 16,1 km/h (3 Bft) 95,74 %
06.10.2019 12:58 8,6 C 7,8 C 0,0 C 97 % 1012,8 hPa 0,0 l/m 0 min 2 min 134 W/m 19,3 km/h (3 Bft) 95,74 %
06.10.2019 13:00 8,7 C 7,8 C 0,0 C 97 % 1013,0 hPa 0,0 l/m 0 min 2 min 124 W/m 29,0 km/h (5 Bft) 93,62 %
06.10.2019 13:02 8,7 C 7,8 C 0,0 C 97 % 1012,9 hPa 0,0 l/m 0 min 2 min 111 W/m 19,3 km/h (3 Bft) 93,48 %
06.10.2019 13:04 8,7 C 7,8 C 0,0 C 97 % 1013,0 hPa 0,0 l/m 0 min 0 min 97 W/m 22,5 km/h (4 Bft) 93,62 %
06.10.2019 13:06 8,7 C 7,8 C 0,0 C 97 % 1012,8 hPa 0,0 l/m 0 min 0 min 98 W/m 16,1 km/h (3 Bft) 95,74 %
06.10.2019 13:08 8,7 C 7,8 C 0,0 C 97 % 1012,9 hPa 0,0 l/m 0 min 0 min 104 W/m 29,0 km/h (5 Bft) 93,62 %
06.10.2019 13:10 8,8 C 7,8 C 0,0 C 97 % 1012,8 hPa 0,0 l/m 0 min 0 min 108 W/m 25,7 km/h (4 Bft) 95,65 %
06.10.2019 13:12 8,8 C 7,8 C 0,0 C 97 % 1012,7 hPa 0,0 l/m 0 min 0 min 95 W/m 19,3 km/h (3 Bft) 95,74 %
06.10.2019 13:14 8,8 C 7,8 C 0,0 C 97 % 1012,8 hPa 0,0 l/m 0 min 0 min 73 W/m 25,7 km/h (4 Bft) 95,74 %
06.10.2019 13:16 8,8 C 7,8 C 0,0 C 97 % 1012,6 hPa 0,2 l/m 0 min 0 min 67 W/m 25,7 km/h (4 Bft) 95,74 %
06.10.2019 13:18 8,8 C 7,8 C 0,0 C 97 % 1012,7 hPa 0,0 l/m 0 min 0 min 55 W/m 25,7 km/h (4 Bft) 93,62 %
06.10.2019 13:20 8,8 C 7,8 C 0,0 C 97 % 1012,6 hPa 0,0 l/m 0 min 0 min 56 W/m 29,0 km/h (5 Bft) 85,11 %
06.10.2019 13:22 8,7 C 7,8 C 0,0 C 97 % 1012,5 hPa 0,0 l/m 0 min 0 min 60 W/m 29,0 km/h (5 Bft) 95,65 %
06.10.2019 13:24 8,7 C 7,8 C 0,0 C 97 % 1012,5 hPa 0,0 l/m 0 min 0 min 55 W/m 25,7 km/h (4 Bft) 95,74 %
06.10.2019 13:26 8,7 C 7,8 C 0,0 C 97 % 1012,6 hPa 0,0 l/m 0 min 0 min 66 W/m 25,7 km/h (4 Bft) 93,62 %
06.10.2019 13:28 8,8 C 7,8 C 0,0 C 97 % 1012,5 hPa 0,0 l/m 0 min 0 min 73 W/m 35,4 km/h (5 Bft) 89,36 %
06.10.2019 13:30 8,8 C 7,8 C 0,0 C 98 % 1012,5 hPa 0,0 l/m 0 min 0 min 70 W/m 19,3 km/h (3 Bft) 59,57 %
06.10.2019 13:32 8,8 C 7,8 C 0,0 C 98 % 1012,5 hPa 0,0 l/m 0 min 0 min 60 W/m 22,5 km/h (4 Bft) 95,74 %
06.10.2019 13:34 8,8 C 7,8 C 0,0 C 98 % 1012,4 hPa 0,0 l/m 0 min 0 min 66 W/m 22,5 km/h (4 Bft) 97,83 %
06.10.2019 13:36 8,8 C 7,8 C 0,0 C 98 % 1012,4 hPa 0,0 l/m 0 min 0 min 63 W/m 16,1 km/h (3 Bft) 93,62 %
06.10.2019 13:38 8,8 C 7,8 C 0,0 C 98 % 1012,4 hPa 0,2 l/m 0 min 2 min 64 W/m 41,8 km/h (6 Bft) 97,87 %
06.10.2019 13:40 8,8 C 7,8 C 0,0 C 98 % 1012,4 hPa 0,0 l/m 0 min 2 min 63 W/m 35,4 km/h (5 Bft) 97,87 %
06.10.2019 13:42 8,8 C 7,8 C 0,0 C 98 % 1012,4 hPa 0,0 l/m 0 min 2 min 65 W/m 25,7 km/h (4 Bft) 95,74 %
06.10.2019 13:44 8,8 C 7,8 C 0,0 C 98 % 1012,4 hPa 0,0 l/m 0 min 2 min 61 W/m 29,0 km/h (5 Bft) 95,74 %
06.10.2019 13:46 8,8 C 7,8 C 0,0 C 98 % 1012,3 hPa 0,0 l/m 0 min 2 min 65 W/m 22,5 km/h (4 Bft) 97,83 %
06.10.2019 13:48 8,8 C 7,8 C 0,0 C 98 % 1012,3 hPa 0,2 l/m 0 min 2 min 71 W/m 22,5 km/h (4 Bft) 97,87 %
06.10.2019 13:50 8,8 C 7,8 C 0,0 C 98 % 1012,3 hPa 0,0 l/m 0 min 2 min 63 W/m 25,7 km/h (4 Bft) 97,87 %
06.10.2019 13:52 8,8 C 7,8 C 0,0 C 98 % 1012,2 hPa 0,0 l/m 0 min 2 min 57 W/m 35,4 km/h (5 Bft) 95,74 %
06.10.2019 13:54 8,8 C 7,8 C 0,0 C 98 % 1012,2 hPa 0,2 l/m 0 min 2 min 55 W/m 22,5 km/h (4 Bft) 97,87 %
06.10.2019 13:56 8,8 C 7,8 C 0,0 C 98 % 1012,2 hPa 0,0 l/m 0 min 2 min 52 W/m 22,5 km/h (4 Bft) 97,83 %
06.10.2019 13:58 8,8 C 7,8 C 0,0 C 98 % 1012,2 hPa 0,0 l/m 0 min 2 min 54 W/m 35,4 km/h (5 Bft) 97,87 %
06.10.2019 14:00 8,8 C 7,8 C 0,0 C 98 % 1012,1 hPa 0,0 l/m 0 min 2 min 62 W/m 25,7 km/h (4 Bft) 100,00 %
06.10.2019 14:02 8,8 C 7,8 C 0,0 C 98 % 1012,1 hPa 0,0 l/m 0 min 2 min 71 W/m 19,3 km/h (3 Bft) 96,61 %
06.10.2019 14:04 8,8 C 7,8 C 0,0 C 98 % 1012,0 hPa 0,2 l/m 0 min 2 min 63 W/m 22,5 km/h (4 Bft) 97,87 %
06.10.2019 14:06 8,8 C 7,8 C 0,0 C 98 % 1012,0 hPa 0,0 l/m 0 min 2 min 64 W/m 25,7 km/h (4 Bft) 97,87 %
06.10.2019 14:08 8,8 C 7,8 C 0,0 C 98 % 1011,9 hPa 0,0 l/m 0 min 2 min 67 W/m 22,5 km/h (4 Bft) 97,83 %
06.10.2019 14:10 8,8 C 7,8 C 0,0 C 98 % 1012,0 hPa 0,2 l/m 0 min 2 min 73 W/m 25,7 km/h (4 Bft) 97,87 %
06.10.2019 14:12 8,8 C 7,8 C 0,0 C 98 % 1011,9 hPa 0,0 l/m 0 min 2 min 74 W/m 29,0 km/h (5 Bft) 100,00 %
06.10.2019 14:14 8,8 C 7,8 C 0,0 C 98 % 1011,8 hPa 0,0 l/m 0 min 2 min 86 W/m 41,8 km/h (6 Bft) 100,00 %
06.10.2019 14:16 8,8 C 7,8 C 0,0 C 98 % 1011,8 hPa 0,0 l/m 0 min 2 min 84 W/m 16,1 km/h (3 Bft) 100,00 %
06.10.2019 14:18 8,8 C 8,3 C 0,0 C 98 % 1011,7 hPa 0,2 l/m 0 min 2 min 88 W/m 19,3 km/h (3 Bft) 100,00 %
06.10.2019 14:20 8,8 C 7,8 C 0,0 C 98 % 1011,6 hPa 0,0 l/m 0 min 2 min 84 W/m 22,5 km/h (4 Bft) 100,00 %
06.10.2019 14:22 8,8 C 7,8 C 0,0 C 98 % 1011,6 hPa 0,2 l/m 0 min 2 min 75 W/m 29,0 km/h (5 Bft) 100,00 %
06.10.2019 14:24 8,8 C 7,8 C 0,0 C 98 % 1011,6 hPa 0,0 l/m 0 min 2 min 67 W/m 25,7 km/h (4 Bft) 100,00 %
06.10.2019 14:26 8,8 C 7,8 C 0,0 C 98 % 1011,6 hPa 0,0 l/m 0 min 2 min 70 W/m 22,5 km/h (4 Bft) 100,00 %
06.10.2019 14:28 8,8 C 7,8 C 0,0 C 98 % 1011,5 hPa 0,0 l/m 0 min 2 min 71 W/m 32,2 km/h (5 Bft) 97,87 %
06.10.2019 14:30 8,8 C 7,8 C 0,0 C 98 % 1011,6 hPa 0,2 l/m 0 min 2 min 78 W/m 25,7 km/h (4 Bft) 100,00 %
06.10.2019 14:32 8,8 C 7,8 C 0,0 C 98 % 1011,6 hPa 0,0 l/m 0 min 2 min 84 W/m 22,5 km/h (4 Bft) 95,65 %
06.10.2019 14:34 8,8 C 7,8 C 0,0 C 98 % 1011,5 hPa 0,0 l/m 0 min 2 min 96 W/m 35,4 km/h (5 Bft) 100,00 %
06.10.2019 14:36 8,9 C 7,8 C 0,0 C 98 % 1011,4 hPa 0,0 l/m 0 min 2 min 89 W/m 29,0 km/h (5 Bft) 100,00 %
06.10.2019 14:38 8,9 C 7,8 C 0,0 C 98 % 1011,5 hPa 0,2 l/m 0 min 2 min 77 W/m 29,0 km/h (5 Bft) 100,00 %
06.10.2019 14:40 8,9 C 7,8 C 0,0 C 98 % 1011,5 hPa 0,0 l/m 0 min 2 min 71 W/m 25,7 km/h (4 Bft) 100,00 %
06.10.2019 14:42 8,9 C 7,8 C 0,0 C 98 % 1011,5 hPa 0,0 l/m 0 min 2 min 70 W/m 29,0 km/h (5 Bft) 100,00 %
06.10.2019 14:44 8,9 C 7,8 C 0,0 C 98 % 1011,5 hPa 0,0 l/m 0 min 2 min 75 W/m 41,8 km/h (6 Bft) 97,83 %
06.10.2019 14:46 8,9 C 7,8 C 0,0 C 98 % 1011,4 hPa 0,2 l/m 0 min 2 min 77 W/m 32,2 km/h (5 Bft) 100,00 %
06.10.2019 14:48 8,9 C 7,8 C 0,0 C 98 % 1011,4 hPa 0,0 l/m 0 min 2 min 104 W/m 29,0 km/h (5 Bft) 100,00 %
06.10.2019 14:50 8,9 C 7,8 C 0,0 C 98 % 1011,3 hPa 0,0 l/m 0 min 2 min 102 W/m 29,0 km/h (5 Bft) 100,00 %
06.10.2019 14:52 8,9 C 8,3 C 0,0 C 98 % 1011,3 hPa 0,0 l/m 0 min 2 min 107 W/m 29,0 km/h (5 Bft) 97,87 %
06.10.2019 14:54 8,9 C 7,8 C 0,0 C 98 % 1011,3 hPa 0,2 l/m 0 min 2 min 93 W/m 32,2 km/h (5 Bft) 100,00 %
06.10.2019 14:56 8,9 C 7,8 C 0,0 C 98 % 1011,3 hPa 0,0 l/m 0 min 2 min 73 W/m 38,6 km/h (5 Bft) 100,00 %
06.10.2019 14:58 8,9 C 7,8 C 0,0 C 98 % 1011,3 hPa 0,0 l/m 0 min 2 min 75 W/m 35,4 km/h (5 Bft) 100,00 %
06.10.2019 15:00 8,9 C 7,8 C 0,0 C 98 % 1011,3 hPa 0,2 l/m 0 min 2 min 76 W/m 35,4 km/h (5 Bft) 100,00 %
06.10.2019 15:02 8,9 C 7,8 C 0,0 C 98 % 1011,2 hPa 0,0 l/m 0 min 2 min 68 W/m 29,0 km/h (5 Bft) 100,00 %
06.10.2019 15:04 8,9 C 7,8 C 0,0 C 98 % 1011,2 hPa 0,0 l/m 0 min 2 min 58 W/m 25,7 km/h (4 Bft) 100,00 %
06.10.2019 15:06 8,9 C 7,8 C 0,0 C 98 % 1011,2 hPa 0,2 l/m 0 min 2 min 49 W/m 25,7 km/h (4 Bft) 100,00 %
06.10.2019 15:08 9,0 C 7,8 C 0,0 C 98 % 1011,2 hPa 0,0 l/m 0 min 2 min 44 W/m 12,9 km/h (3 Bft) 100,00 %
06.10.2019 15:10 9,0 C 7,8 C 0,0 C 98 % 1011,2 hPa 0,0 l/m 0 min 2 min 46 W/m 19,3 km/h (3 Bft) 95,74 %
06.10.2019 15:12 9,0 C 7,8 C 0,0 C 98 % 1011,2 hPa 0,2 l/m 0 min 2 min 51 W/m 41,8 km/h (6 Bft) 100,00 %
06.10.2019 15:14 8,9 C 7,8 C 0,0 C 98 % 1011,2 hPa 0,0 l/m 0 min 2 min 50 W/m 25,7 km/h (4 Bft) 95,74 %
06.10.2019 15:16 8,9 C 7,8 C 0,0 C 98 % 1011,1 hPa 0,2 l/m 0 min 2 min 58 W/m 29,0 km/h (5 Bft) 100,00 %
06.10.2019 15:18 8,9 C 7,8 C 0,0 C 98 % 1010,9 hPa 0,0 l/m 0 min 2 min 64 W/m 35,4 km/h (5 Bft) 97,83 %
06.10.2019 15:20 8,9 C 7,8 C 0,0 C 98 % 1011,0 hPa 0,2 l/m 0 min 2 min 57 W/m 29,0 km/h (5 Bft) 97,87 %
06.10.2019 15:22 8,9 C 7,8 C 0,0 C 98 % 1010,9 hPa 0,0 l/m 0 min 2 min 52 W/m 29,0 km/h (5 Bft) 95,74 %
06.10.2019 15:24 8,9 C 7,8 C 0,0 C 98 % 1010,8 hPa 0,2 l/m 0 min 2 min 44 W/m 22,5 km/h (4 Bft) 95,74 %
06.10.2019 15:26 8,9 C 7,8 C 0,0 C 98 % 1010,8 hPa 0,0 l/m 0 min 2 min 37 W/m 25,7 km/h (4 Bft) 97,87 %
06.10.2019 15:28 8,9 C 7,8 C 0,0 C 98 % 1010,9 hPa 0,0 l/m 0 min 2 min 35 W/m 25,7 km/h (4 Bft) 97,87 %
06.10.2019 15:30 8,9 C 7,8 C 0,0 C 98 % 1010,8 hPa 0,0 l/m 0 min 2 min 29 W/m 32,2 km/h (5 Bft) 97,83 %
06.10.2019 15:32 8,9 C 7,8 C 0,0 C 98 % 1010,7 hPa 0,0 l/m 0 min 2 min 27 W/m 38,6 km/h (5 Bft) 97,87 %
06.10.2019 15:34 8,9 C 7,8 C 0,0 C 98 % 1010,7 hPa 0,2 l/m 0 min 2 min 31 W/m 25,7 km/h (4 Bft) 97,87 %
06.10.2019 15:36 8,9 C 7,8 C 0,0 C 98 % 1010,7 hPa 0,0 l/m 0 min 2 min 30 W/m 25,7 km/h (4 Bft) 97,87 %
06.10.2019 15:38 8,9 C 7,8 C 0,0 C 98 % 1010,6 hPa 0,2 l/m 0 min 2 min 30 W/m 25,7 km/h (4 Bft) 97,87 %
06.10.2019 15:40 8,9 C 7,8 C 0,0 C 98 % 1010,6 hPa 0,0 l/m 0 min 2 min 30 W/m 22,5 km/h (4 Bft) 97,87 %
06.10.2019 15:42 8,9 C 7,8 C 0,0 C 98 % 1010,6 hPa 0,0 l/m 0 min 2 min 24 W/m 19,3 km/h (3 Bft) 93,48 %
06.10.2019 15:44 8,9 C 7,8 C 0,0 C 99 % 1010,6 hPa 0,2 l/m 0 min 2 min 23 W/m 35,4 km/h (5 Bft) 97,87 %
06.10.2019 15:46 8,9 C 7,8 C 0,0 C 99 % 1010,5 hPa 0,2 l/m 0 min 2 min 24 W/m 19,3 km/h (3 Bft) 97,87 %
06.10.2019 15:48 8,9 C 7,8 C 0,0 C 99 % 1010,5 hPa 0,0 l/m 0 min 2 min 24 W/m 22,5 km/h (4 Bft) 97,87 %
06.10.2019 15:50 8,9 C 7,8 C 0,0 C 99 % 1010,4 hPa 0,2 l/m 0 min 2 min 22 W/m 16,1 km/h (3 Bft) 97,87 %
06.10.2019 15:52 8,9 C 7,8 C 0,0 C 99 % 1010,3 hPa 0,0 l/m 0 min 2 min 28 W/m 25,7 km/h (4 Bft) 95,74 %
06.10.2019 15:54 8,9 C 7,8 C 0,0 C 99 % 1010,3 hPa 0,2 l/m 0 min 2 min 25 W/m 29,0 km/h (5 Bft) 93,48 %
06.10.2019 15:56 8,9 C 7,8 C 0,0 C 99 % 1010,2 hPa 0,2 l/m 0 min 2 min 25 W/m 32,2 km/h (5 Bft) 95,74 %
06.10.2019 15:58 8,9 C 7,8 C 0,0 C 99 % 1010,2 hPa 0,2 l/m 0 min 2 min 27 W/m 22,5 km/h (4 Bft) 93,62 %
06.10.2019 16:00 8,9 C 7,8 C 0,0 C 99 % 1010,2 hPa 0,0 l/m 0 min 2 min 26 W/m 25,7 km/h (4 Bft) 97,14 %
06.10.2019 16:02 8,9 C 7,8 C 0,0 C 99 % 1010,2 hPa 0,0 l/m 0 min 2 min 32 W/m 19,3 km/h (3 Bft) 93,75 %
06.10.2019 16:04 8,9 C 7,8 C 0,0 C 99 % 1010,1 hPa 0,2 l/m 0 min 2 min 29 W/m 16,1 km/h (3 Bft) 95,74 %
06.10.2019 16:06 8,9 C 7,8 C 0,0 C 99 % 1010,1 hPa 0,0 l/m 0 min 2 min 33 W/m 19,3 km/h (3 Bft) 97,87 %
06.10.2019 16:08 8,9 C 7,8 C 0,0 C 99 % 1010,1 hPa 0,0 l/m 0 min 2 min 33 W/m 16,1 km/h (3 Bft) 95,65 %
06.10.2019 16:10 8,9 C 7,8 C 0,0 C 99 % 1010,0 hPa 0,2 l/m 0 min 2 min 33 W/m 29,0 km/h (5 Bft) 97,87 %
06.10.2019 16:12 8,9 C 7,8 C 0,0 C 99 % 1010,0 hPa 0,0 l/m 0 min 2 min 30 W/m 29,0 km/h (5 Bft) 95,74 %
06.10.2019 16:14 8,9 C 7,8 C 0,0 C 99 % 1010,0 hPa 0,0 l/m 0 min 2 min 26 W/m 16,1 km/h (3 Bft) 95,74 %
06.10.2019 16:16 8,9 C 7,8 C 0,0 C 99 % 1010,0 hPa 0,2 l/m 0 min 2 min 26 W/m 19,3 km/h (3 Bft) 91,49 %
06.10.2019 16:18 8,9 C 7,8 C 0,0 C 99 % 1009,9 hPa 0,0 l/m 0 min 2 min 27 W/m 29,0 km/h (5 Bft) 93,62 %
06.10.2019 16:20 8,9 C 7,8 C 0,0 C 99 % 1009,9 hPa 0,2 l/m 0 min 2 min 23 W/m 22,5 km/h (4 Bft) 95,65 %
06.10.2019 16:22 8,8 C 7,8 C 0,0 C 99 % 1009,8 hPa 0,0 l/m 0 min 2 min 22 W/m 32,2 km/h (5 Bft) 95,74 %
06.10.2019 16:24 8,8 C 7,8 C 0,0 C 98 % 1009,9 hPa 0,2 l/m 0 min 2 min 19 W/m 19,3 km/h (3 Bft) 95,74 %
06.10.2019 16:26 8,8 C 7,8 C 0,0 C 98 % 1009,8 hPa 0,2 l/m 0 min 2 min 18 W/m 16,1 km/h (3 Bft) 93,62 %
06.10.2019 16:28 8,8 C 7,8 C 0,0 C 98 % 1009,8 hPa 0,2 l/m 0 min 2 min 16 W/m 29,0 km/h (5 Bft) 95,74 %
06.10.2019 16:30 8,8 C 7,8 C 0,0 C 98 % 1009,7 hPa 0,2 l/m 0 min 2 min 17 W/m 32,2 km/h (5 Bft) 95,74 %
06.10.2019 16:32 8,8 C 7,8 C 0,0 C 98 % 1009,7 hPa 0,2 l/m 0 min 2 min 17 W/m 19,3 km/h (3 Bft) 93,48 %
06.10.2019 16:34 8,8 C 7,8 C 0,0 C 98 % 1009,8 hPa 0,2 l/m 0 min 2 min 17 W/m 35,4 km/h (5 Bft) 95,74 %
06.10.2019 16:36 8,8 C 7,8 C 0,0 C 98 % 1009,8 hPa 0,2 l/m 0 min 2 min 17 W/m 32,2 km/h (5 Bft) 95,74 %
06.10.2019 16:38 8,8 C 7,8 C 0,0 C 98 % 1009,7 hPa 0,2 l/m 0 min 2 min 18 W/m 16,1 km/h (3 Bft) 95,74 %
06.10.2019 16:40 8,8 C 7,8 C 0,0 C 98 % 1009,6 hPa 0,2 l/m 0 min 2 min 18 W/m 29,0 km/h (5 Bft) 93,62 %
06.10.2019 16:42 8,8 C 7,8 C 0,0 C 98 % 1009,7 hPa 0,2 l/m 0 min 2 min 18 W/m 22,5 km/h (4 Bft) 95,65 %
06.10.2019 16:44 8,8 C 7,8 C 0,0 C 98 % 1009,7 hPa 0,0 l/m 0 min 2 min 16 W/m 22,5 km/h (4 Bft) 95,74 %
06.10.2019 16:46 8,8 C 7,8 C 0,0 C 98 % 1009,7 hPa 0,2 l/m 0 min 2 min 13 W/m 38,6 km/h (5 Bft) 91,49 %
06.10.2019 16:48 8,8 C 7,8 C 0,0 C 99 % 1009,8 hPa 0,2 l/m 0 min 2 min 12 W/m 19,3 km/h (3 Bft) 97,87 %
06.10.2019 16:50 8,8 C 7,8 C 0,0 C 99 % 1009,7 hPa 0,0 l/m 0 min 2 min 11 W/m 16,1 km/h (3 Bft) 97,87 %
06.10.2019 16:52 8,8 C 7,8 C 0,0 C 99 % 1009,7 hPa 0,2 l/m 0 min 2 min 13 W/m 12,9 km/h (3 Bft) 97,87 %
06.10.2019 16:54 8,8 C 7,8 C 0,0 C 99 % 1009,7 hPa 0,2 l/m 0 min 2 min 14 W/m 19,3 km/h (3 Bft) 97,87 %
06.10.2019 16:56 8,8 C 7,8 C 0,0 C 99 % 1009,7 hPa 0,2 l/m 0 min 2 min 16 W/m 25,7 km/h (4 Bft) 97,83 %
06.10.2019 16:58 8,8 C 7,8 C 0,0 C 99 % 1009,7 hPa 0,0 l/m 0 min 2 min 14 W/m 19,3 km/h (3 Bft) 100,00 %
06.10.2019 17:00 8,8 C 7,8 C 0,0 C 99 % 1009,7 hPa 0,2 l/m 0 min 2 min 14 W/m 19,3 km/h (3 Bft) 100,00 %
06.10.2019 17:02 8,8 C 7,8 C 0,0 C 99 % 1009,7 hPa 0,0 l/m 0 min 2 min 14 W/m 19,3 km/h (3 Bft) 100,00 %
06.10.2019 17:04 8,8 C 7,8 C 0,0 C 99 % 1009,7 hPa 0,0 l/m 0 min 2 min 13 W/m 19,3 km/h (3 Bft) 100,00 %
06.10.2019 17:06 8,8 C 7,8 C 0,0 C 99 % 1009,7 hPa 0,2 l/m 0 min 2 min 12 W/m 19,3 km/h (3 Bft) 97,87 %
06.10.2019 17:08 8,8 C 7,8 C 0,0 C 99 % 1009,7 hPa 0,0 l/m 0 min 2 min 12 W/m 6,4 km/h (2 Bft) 100,00 %
06.10.2019 17:10 8,8 C 7,8 C 0,0 C 99 % 1009,7 hPa 0,0 l/m 0 min 2 min 12 W/m 25,7 km/h (4 Bft) 100,00 %
06.10.2019 17:12 8,8 C 7,8 C 0,0 C 99 % 1009,5 hPa 0,2 l/m 0 min 2 min 12 W/m 25,7 km/h (4 Bft) 100,00 %
06.10.2019 17:14 8,8 C 7,8 C 0,0 C 99 % 1009,7 hPa 0,0 l/m 0 min 2 min 12 W/m 19,3 km/h (3 Bft) 100,00 %
06.10.2019 17:16 8,8 C 7,8 C 0,0 C 99 % 1009,5 hPa 0,0 l/m 0 min 2 min 12 W/m 19,3 km/h (3 Bft) 100,00 %
06.10.2019 17:18 8,8 C 7,8 C 0,0 C 99 % 1009,6 hPa 0,2 l/m 0 min 2 min 12 W/m 19,3 km/h (3 Bft) 100,00 %
06.10.2019 17:20 8,8 C 7,8 C 0,0 C 99 % 1009,5 hPa 0,0 l/m 0 min 2 min 11 W/m 25,7 km/h (4 Bft) 97,87 %
06.10.2019 17:22 8,8 C 7,8 C 0,0 C 99 % 1009,5 hPa 0,2 l/m 0 min 2 min 11 W/m 35,4 km/h (5 Bft) 100,00 %
06.10.2019 17:24 8,8 C 7,8 C 0,0 C 99 % 1009,6 hPa 0,0 l/m 0 min 2 min 12 W/m 25,7 km/h (4 Bft) 100,00 %
06.10.2019 17:26 8,8 C 7,8 C 0,0 C 99 % 1009,5 hPa 0,0 l/m 0 min 2 min 13 W/m 25,7 km/h (4 Bft) 100,00 %
06.10.2019 17:28 8,8 C 7,8 C 0,0 C 99 % 1009,5 hPa 0,2 l/m 0 min 2 min 15 W/m 22,5 km/h (4 Bft) 100,00 %
06.10.2019 17:30 8,8 C 7,8 C 0,0 C 99 % 1009,5 hPa 0,0 l/m 0 min 2 min 17 W/m 32,2 km/h (5 Bft) 97,83 %
06.10.2019 17:32 8,8 C 7,8 C 0,0 C 99 % 1009,5 hPa 0,0 l/m 0 min 0 min 17 W/m 29,0 km/h (5 Bft) 100,00 %
06.10.2019 17:34 8,8 C 7,8 C 0,0 C 99 % 1009,5 hPa 0,0 l/m 0 min 0 min 13 W/m 29,0 km/h (5 Bft) 97,87 %
06.10.2019 17:36 8,8 C 7,8 C 0,0 C 99 % 1009,5 hPa 0,0 l/m 0 min 0 min 11 W/m 25,7 km/h (4 Bft) 100,00 %
06.10.2019 17:38 8,8 C 7,8 C 0,0 C 99 % 1009,5 hPa 0,0 l/m 0 min 2 min 11 W/m 25,7 km/h (4 Bft) 100,00 %
06.10.2019 17:40 8,8 C 7,8 C 0,0 C 99 % 1009,5 hPa 0,0 l/m 0 min 0 min 11 W/m 35,4 km/h (5 Bft) 100,00 %
06.10.2019 17:42 8,8 C 7,8 C 0,0 C 99 % 1009,6 hPa 0,0 l/m 0 min 0 min 10 W/m 19,3 km/h (3 Bft) 100,00 %
06.10.2019 17:44 8,8 C 7,8 C 0,0 C 99 % 1009,6 hPa 0,0 l/m 0 min 0 min 11 W/m 22,5 km/h (4 Bft) 100,00 %
06.10.2019 17:46 8,8 C 7,8 C 0,0 C 99 % 1009,6 hPa 0,0 l/m 0 min 2 min 12 W/m 29,0 km/h (5 Bft) 97,87 %
06.10.2019 17:48 8,8 C 7,8 C 0,0 C 99 % 1009,6 hPa 0,0 l/m 0 min 2 min 11 W/m 22,5 km/h (4 Bft) 100,00 %
06.10.2019 17:50 8,8 C 7,8 C 0,0 C 99 % 1009,5 hPa 0,0 l/m 0 min 2 min 9 W/m 29,0 km/h (5 Bft) 100,00 %
06.10.2019 17:52 8,8 C 7,8 C 0,0 C 99 % 1009,6 hPa 0,0 l/m 0 min 0 min 8 W/m 35,4 km/h (5 Bft) 97,87 %
06.10.2019 17:54 8,8 C 7,8 C 0,0 C 99 % 1009,6 hPa 0,0 l/m 0 min 0 min 8 W/m 38,6 km/h (5 Bft) 100,00 %
06.10.2019 17:56 8,8 C 7,8 C 0,0 C 99 % 1009,5 hPa 0,0 l/m 0 min 0 min 9 W/m 35,4 km/h (5 Bft) 97,87 %
06.10.2019 17:58 8,8 C 7,8 C 0,0 C 99 % 1009,6 hPa 0,0 l/m 0 min 2 min 12 W/m 22,5 km/h (4 Bft) 97,87 %
06.10.2019 18:00 8,8 C 7,8 C 0,0 C 99 % 1009,6 hPa 0,0 l/m 0 min 0 min 12 W/m 19,3 km/h (3 Bft) 97,14 %
06.10.2019 18:02 8,8 C 7,8 C 0,0 C 99 % 1009,6 hPa 0,0 l/m 0 min 0 min 11 W/m 22,5 km/h (4 Bft) 97,92 %
06.10.2019 18:04 8,8 C 7,8 C 0,0 C 99 % 1009,5 hPa 0,0 l/m 0 min 0 min 11 W/m 38,6 km/h (5 Bft) 93,48 %
06.10.2019 18:08 8,8 C 7,8 C 0,0 C 99 % 1009,5 hPa 0,0 l/m 0 min 0 min 11 W/m 22,5 km/h (4 Bft) 97,87 %
06.10.2019 18:10 8,8 C 7,8 C 0,0 C 99 % 1009,6 hPa 0,0 l/m 0 min 0 min 10 W/m 22,5 km/h (4 Bft) 97,87 %
06.10.2019 18:12 8,8 C 7,8 C 0,0 C 99 % 1009,6 hPa 0,0 l/m 0 min 0 min 9 W/m 22,5 km/h (4 Bft) 97,87 %
06.10.2019 18:14 8,8 C 7,8 C 0,0 C 99 % 1009,5 hPa 0,0 l/m 0 min 0 min 9 W/m 22,5 km/h (4 Bft) 97,87 %
06.10.2019 18:16 8,8 C 7,8 C 0,0 C 99 % 1009,6 hPa 0,0 l/m 0 min 0 min 9 W/m 29,0 km/h (5 Bft) 97,83 %
06.10.2019 18:18 8,8 C 7,8 C 0,0 C 99 % 1009,5 hPa 0,0 l/m 0 min 0 min 9 W/m 16,1 km/h (3 Bft) 97,87 %
06.10.2019 18:20 8,8 C 7,8 C 0,0 C 99 % 1009,6 hPa 0,0 l/m 0 min 0 min 9 W/m 12,9 km/h (3 Bft) 97,87 %
06.10.2019 18:22 8,8 C 7,8 C 0,0 C 99 % 1009,7 hPa 0,0 l/m 0 min 0 min 8 W/m 12,9 km/h (3 Bft) 95,74 %
06.10.2019 18:24 8,8 C 7,8 C 0,0 C 99 % 1009,6 hPa 0,0 l/m 0 min 0 min 7 W/m 16,1 km/h (3 Bft) 97,87 %
06.10.2019 18:26 8,9 C 7,8 C 0,0 C 99 % 1009,5 hPa 0,0 l/m 0 min 0 min 8 W/m 25,7 km/h (4 Bft) 97,87 %
06.10.2019 18:28 8,9 C 7,8 C 0,0 C 99 % 1009,5 hPa 0,0 l/m 0 min 0 min 7 W/m 19,3 km/h (3 Bft) 95,65 %
06.10.2019 18:30 8,9 C 7,8 C 0,0 C 99 % 1009,5 hPa 0,0 l/m 0 min 0 min 8 W/m 25,7 km/h (4 Bft) 95,74 %
06.10.2019 18:32 8,9 C 7,8 C 0,0 C 99 % 1009,6 hPa 0,0 l/m 0 min 0 min 9 W/m 16,1 km/h (3 Bft) 97,87 %
06.10.2019 18:34 8,9 C 7,8 C 0,0 C 99 % 1009,6 hPa 0,0 l/m 0 min 0 min 7 W/m 22,5 km/h (4 Bft) 97,87 %
06.10.2019 18:36 8,9 C 7,8 C 0,0 C 99 % 1009,6 hPa 0,0 l/m 0 min 0 min 7 W/m 22,5 km/h (4 Bft) 97,87 %
06.10.2019 18:38 8,9 C 7,8 C 0,0 C 99 % 1009,7 hPa 0,0 l/m 0 min 0 min 5 W/m 16,1 km/h (3 Bft) 100,00 %
06.10.2019 18:40 8,9 C 7,8 C 0,0 C 99 % 1009,6 hPa 0,0 l/m 0 min 0 min 1 W/m 16,1 km/h (3 Bft) 95,65 %
06.10.2019 18:42 8,9 C 7,8 C 0,0 C 99 % 1009,7 hPa 0,0 l/m 0 min 0 min 0 W/m 12,9 km/h (3 Bft) 97,87 %
06.10.2019 18:44 8,9 C 7,8 C 0,0 C 99 % 1009,6 hPa 0,0 l/m 0 min 0 min 0 W/m 9,7 km/h (2 Bft) 97,87 %
06.10.2019 18:46 8,9 C 7,8 C 0,0 C 99 % 1009,6 hPa 0,0 l/m 0 min 0 min 0 W/m 3,2 km/h (1 Bft) 100,00 %
06.10.2019 18:48 8,9 C 7,8 C 0,0 C 99 % 1009,5 hPa 0,0 l/m 0 min 2 min 0 W/m 12,9 km/h (3 Bft) 100,00 %
06.10.2019 18:50 8,9 C 7,8 C 0,0 C 99 % 1009,5 hPa 0,2 l/m 0 min 2 min 0 W/m 25,7 km/h (4 Bft) 97,87 %
06.10.2019 18:52 8,9 C 7,8 C 0,0 C 99 % 1009,5 hPa 0,2 l/m 0 min 2 min 0 W/m 12,9 km/h (3 Bft) 100,00 %
06.10.2019 18:54 8,9 C 7,8 C 0,0 C 99 % 1009,6 hPa 0,2 l/m 0 min 2 min 0 W/m 19,3 km/h (3 Bft) 100,00 %
06.10.2019 18:56 8,9 C 7,8 C 0,0 C 99 % 1009,7 hPa 0,4 l/m 0 min 2 min 0 W/m 19,3 km/h (3 Bft) 100,00 %
06.10.2019 18:58 8,9 C 7,8 C 0,0 C 99 % 1009,7 hPa 0,2 l/m 0 min 2 min 0 W/m 6,4 km/h (2 Bft) 97,87 %
06.10.2019 19:00 8,9 C 7,8 C 0,0 C 99 % 1009,9 hPa 0,2 l/m 0 min 2 min 0 W/m 6,4 km/h (2 Bft) 97,87 %
06.10.2019 19:02 8,9 C 7,8 C 0,0 C 99 % 1009,9 hPa 0,4 l/m 0 min 2 min 0 W/m 12,9 km/h (3 Bft) 95,65 %
06.10.2019 19:04 8,9 C 7,8 C 0,0 C 99 % 1009,9 hPa 0,0 l/m 0 min 2 min 0 W/m 6,4 km/h (2 Bft) 97,87 %
06.10.2019 19:06 8,9 C 7,8 C 0,0 C 99 % 1010,0 hPa 0,0 l/m 0 min 2 min 0 W/m 9,7 km/h (2 Bft) 97,87 %
06.10.2019 19:08 8,9 C 7,8 C 0,0 C 99 % 1010,0 hPa 0,0 l/m 0 min 2 min 0 W/m 6,4 km/h (2 Bft) 95,74 %
06.10.2019 19:10 8,9 C 7,8 C 0,0 C 99 % 1010,0 hPa 0,0 l/m 0 min 0 min 0 W/m 9,7 km/h (2 Bft) 95,74 %
06.10.2019 19:12 8,9 C 7,8 C 0,0 C 99 % 1010,0 hPa 0,0 l/m 0 min 0 min 0 W/m 0,0 km/h (0 Bft) 95,74 %
06.10.2019 19:14 8,9 C 7,8 C 0,0 C 99 % 1010,0 hPa 0,2 l/m 0 min 0 min 0 W/m 3,2 km/h (1 Bft) 95,65 %
06.10.2019 19:16 8,9 C 7,8 C 0,0 C 99 % 1010,0 hPa 0,0 l/m 0 min 2 min 0 W/m 3,2 km/h (1 Bft) 95,74 %
06.10.2019 19:18 8,9 C 7,8 C 0,0 C 99 % 1010,1 hPa 0,0 l/m 0 min 2 min 0 W/m 3,2 km/h (1 Bft) 95,74 %
06.10.2019 19:20 8,9 C 7,8 C 0,0 C 99 % 1010,2 hPa 0,2 l/m 0 min 2 min 0 W/m 3,2 km/h (1 Bft) 95,74 %
06.10.2019 19:22 8,9 C 7,8 C 0,0 C 99 % 1010,2 hPa 0,0 l/m 0 min 2 min 0 W/m 9,7 km/h (2 Bft) 95,74 %
06.10.2019 19:24 8,9 C 7,8 C 0,0 C 99 % 1010,2 hPa 0,0 l/m 0 min 2 min 0 W/m 6,4 km/h (2 Bft) 95,65 %
06.10.2019 19:26 8,9 C 7,8 C 0,0 C 99 % 1010,3 hPa 0,2 l/m 0 min 2 min 0 W/m 3,2 km/h (1 Bft) 95,65 %
06.10.2019 19:28 8,9 C 7,8 C 0,0 C 99 % 1010,3 hPa 0,0 l/m 0 min 2 min 0 W/m 6,4 km/h (2 Bft) 95,74 %
06.10.2019 19:30 8,9 C 7,8 C 0,0 C 99 % 1010,4 hPa 0,0 l/m 0 min 2 min 0 W/m 3,2 km/h (1 Bft) 95,74 %
06.10.2019 19:32 8,9 C 7,8 C 0,0 C 99 % 1010,4 hPa 0,0 l/m 0 min 2 min 0 W/m 6,4 km/h (2 Bft) 93,62 %
06.10.2019 19:34 8,9 C 7,8 C 0,0 C 99 % 1010,4 hPa 0,2 l/m 0 min 2 min 0 W/m 3,2 km/h (1 Bft) 95,74 %
06.10.2019 19:36 8,9 C 7,8 C 0,0 C 99 % 1010,4 hPa 0,0 l/m 0 min 2 min 0 W/m 6,4 km/h (2 Bft) 95,74 %
06.10.2019 19:38 8,9 C 7,8 C 0,0 C 99 % 1010,5 hPa 0,0 l/m 0 min 2 min 0 W/m 3,2 km/h (1 Bft) 95,65 %
06.10.2019 19:40 8,8 C 7,8 C 0,0 C 99 % 1010,4 hPa 0,0 l/m 0 min 2 min 0 W/m 6,4 km/h (2 Bft) 95,74 %
06.10.2019 19:42 8,8 C 7,8 C 0,0 C 99 % 1010,5 hPa 0,0 l/m 0 min 2 min 0 W/m 16,1 km/h (3 Bft) 95,74 %
06.10.2019 19:44 8,8 C 7,8 C 0,0 C 99 % 1010,5 hPa 0,2 l/m 0 min 2 min 0 W/m 16,1 km/h (3 Bft) 95,74 %
06.10.2019 19:46 8,8 C 7,8 C 0,0 C 99 % 1010,5 hPa 0,0 l/m 0 min 2 min 0 W/m 6,4 km/h (2 Bft) 95,74 %
06.10.2019 19:48 8,8 C 7,8 C 0,0 C 99 % 1010,5 hPa 0,0 l/m 0 min 2 min 0 W/m 3,2 km/h (1 Bft) 97,87 %
06.10.2019 19:50 8,8 C 7,8 C 0,0 C 99 % 1010,5 hPa 0,0 l/m 0 min 2 min 0 W/m 6,4 km/h (2 Bft) 97,83 %
06.10.2019 19:52 8,8 C 7,8 C 0,0 C 99 % 1010,5 hPa 0,2 l/m 0 min 2 min 0 W/m 3,2 km/h (1 Bft) 97,87 %
06.10.2019 19:54 8,8 C 7,8 C 0,0 C 99 % 1010,5 hPa 0,0 l/m 0 min 2 min 0 W/m 12,9 km/h (3 Bft) 97,87 %
06.10.2019 19:56 8,8 C 7,8 C 0,0 C 99 % 1010,6 hPa 0,0 l/m 0 min 2 min 0 W/m 6,4 km/h (2 Bft) 97,87 %
06.10.2019 19:58 8,8 C 7,8 C 0,0 C 99 % 1010,6 hPa 0,0 l/m 0 min 2 min 0 W/m 6,4 km/h (2 Bft) 97,87 %
06.10.2019 20:00 8,8 C 7,8 C 0,0 C 99 % 1010,6 hPa 0,0 l/m 0 min 2 min 0 W/m 9,7 km/h (2 Bft) 97,87 %
06.10.2019 20:02 8,8 C 7,8 C 0,0 C 99 % 1010,6 hPa 0,2 l/m 0 min 2 min 0 W/m 9,7 km/h (2 Bft) 97,83 %
06.10.2019 20:04 8,8 C 7,8 C 0,0 C 99 % 1010,6 hPa 0,0 l/m 0 min 2 min 0 W/m 6,4 km/h (2 Bft) 100,00 %
06.10.2019 20:06 8,8 C 7,8 C 0,0 C 99 % 1010,5 hPa 0,0 l/m 0 min 2 min 0 W/m 3,2 km/h (1 Bft) 98,31 %
06.10.2019 20:08 8,8 C 7,8 C 0,0 C 99 % 1010,5 hPa 0,0 l/m 0 min 2 min 0 W/m 16,1 km/h (3 Bft) 100,00 %
06.10.2019 20:10 8,8 C 7,8 C 0,0 C 99 % 1010,5 hPa 0,2 l/m 0 min 2 min 0 W/m 19,3 km/h (3 Bft) 100,00 %
06.10.2019 20:12 8,8 C 7,8 C 0,0 C 99 % 1010,6 hPa 0,0 l/m 0 min 2 min 0 W/m 29,0 km/h (5 Bft) 98,28 %
06.10.2019 20:14 8,8 C 7,8 C 0,0 C 99 % 1010,6 hPa 0,0 l/m 0 min 2 min 0 W/m 38,6 km/h (5 Bft) 100,00 %
06.10.2019 20:16 8,8 C 7,8 C 0,0 C 99 % 1010,6 hPa 0,0 l/m 0 min 2 min 0 W/m 22,5 km/h (4 Bft) 100,00 %
06.10.2019 20:18 8,8 C 7,8 C 0,0 C 99 % 1010,6 hPa 0,0 l/m 0 min 2 min 0 W/m 12,9 km/h (3 Bft) 100,00 %
06.10.2019 20:20 8,8 C 7,8 C 0,0 C 99 % 1010,7 hPa 0,0 l/m 0 min 2 min 0 W/m 9,7 km/h (2 Bft) 97,14 %
06.10.2019 20:22 8,8 C 7,8 C 0,0 C 99 % 1010,6 hPa 0,0 l/m 0 min 2 min 0 W/m 16,1 km/h (3 Bft) 100,00 %
06.10.2019 20:24 8,8 C 7,8 C 0,0 C 99 % 1010,6 hPa 0,0 l/m 0 min 2 min 0 W/m 3,2 km/h (1 Bft) 100,00 %
06.10.2019 20:26 8,8 C 7,8 C 0,0 C 99 % 1010,5 hPa 0,0 l/m 0 min 2 min 0 W/m 12,9 km/h (3 Bft) 96,61 %
06.10.2019 20:28 8,8 C 7,8 C 0,0 C 99 % 1010,6 hPa 0,0 l/m 0 min 2 min 0 W/m 9,7 km/h (2 Bft) 97,14 %
06.10.2019 20:30 8,8 C 7,8 C 0,0 C 99 % 1010,5 hPa 0,0 l/m 0 min 2 min 0 W/m 22,5 km/h (4 Bft) 98,31 %
06.10.2019 20:32 8,8 C 7,8 C 0,0 C 99 % 1010,5 hPa 0,0 l/m 0 min 2 min 0 W/m 32,2 km/h (5 Bft) 97,14 %
06.10.2019 20:34 8,8 C 7,8 C 0,0 C 99 % 1010,5 hPa 0,2 l/m 0 min 2 min 0 W/m 19,3 km/h (3 Bft) 98,28 %
06.10.2019 20:36 8,8 C 7,8 C 0,0 C 99 % 1010,6 hPa 0,0 l/m 0 min 2 min 0 W/m 22,5 km/h (4 Bft) 95,74 %
06.10.2019 20:38 8,8 C 7,8 C 0,0 C 99 % 1010,6 hPa 0,0 l/m 0 min 2 min 0 W/m 19,3 km/h (3 Bft) 100,00 %
06.10.2019 20:40 8,8 C 7,8 C 0,0 C 99 % 1010,7 hPa 0,0 l/m 0 min 2 min 0 W/m 22,5 km/h (4 Bft) 95,74 %
06.10.2019 20:42 8,8 C 7,8 C 0,0 C 99 % 1010,7 hPa 0,0 l/m 0 min 2 min 0 W/m 16,1 km/h (3 Bft) 97,87 %
06.10.2019 20:44 8,8 C 7,8 C 0,0 C 99 % 1010,7 hPa 0,0 l/m 0 min 2 min 0 W/m 25,7 km/h (4 Bft) 96,55 %
06.10.2019 20:46 8,8 C 7,8 C 0,0 C 99 % 1010,7 hPa 0,0 l/m 0 min 2 min 0 W/m 19,3 km/h (3 Bft) 94,44 %
06.10.2019 20:48 8,8 C 7,8 C 0,0 C 99 % 1010,6 hPa 0,0 l/m 0 min 0 min 0 W/m 16,1 km/h (3 Bft) 96,55 %
06.10.2019 20:50 8,8 C 7,8 C 0,0 C 99 % 1010,6 hPa 0,0 l/m 0 min 2 min 0 W/m 22,5 km/h (4 Bft) 97,87 %
06.10.2019 20:52 8,8 C 7,8 C 0,0 C 99 % 1010,6 hPa 0,0 l/m 0 min 2 min 0 W/m 25,7 km/h (4 Bft) 94,29 %
06.10.2019 20:54 8,8 C 7,8 C 0,0 C 99 % 1010,6 hPa 0,2 l/m 0 min 2 min 0 W/m 12,9 km/h (3 Bft) 97,87 %
06.10.2019 20:56 8,8 C 7,8 C 0,0 C 99 % 1010,6 hPa 0,0 l/m 0 min 2 min 0 W/m 16,1 km/h (3 Bft) 97,87 %
06.10.2019 20:58 8,8 C 7,8 C 0,0 C 99 % 1010,6 hPa 0,0 l/m 0 min 0 min 0 W/m 22,5 km/h (4 Bft) 95,74 %
06.10.2019 21:00 8,8 C 7,8 C 0,0 C 99 % 1010,6 hPa 0,0 l/m 0 min 0 min 0 W/m 25,7 km/h (4 Bft) 97,96 %
06.10.2019 21:02 8,8 C 7,8 C 0,0 C 99 % 1010,6 hPa 0,0 l/m 0 min 0 min 0 W/m 35,4 km/h (5 Bft) 97,83 %
06.10.2019 21:04 8,8 C 7,8 C 0,0 C 99 % 1010,6 hPa 0,0 l/m 0 min 0 min 0 W/m 16,1 km/h (3 Bft) 97,87 %
06.10.2019 21:06 8,8 C 7,8 C 0,0 C 99 % 1010,7 hPa 0,0 l/m 0 min 0 min 0 W/m 16,1 km/h (3 Bft) 98,18 %
06.10.2019 21:08 8,7 C 7,8 C 0,0 C 99 % 1010,8 hPa 0,0 l/m 0 min 0 min 0 W/m 19,3 km/h (3 Bft) 97,83 %
06.10.2019 21:10 8,7 C 7,8 C 0,0 C 99 % 1010,9 hPa 0,0 l/m 0 min 0 min 0 W/m 12,9 km/h (3 Bft) 97,37 %
06.10.2019 21:12 8,8 C 7,8 C 0,0 C 99 % 1010,8 hPa 0,0 l/m 0 min 0 min 0 W/m 6,4 km/h (2 Bft) 100,00 %
06.10.2019 21:14 8,8 C 7,8 C 0,0 C 99 % 1010,8 hPa 0,0 l/m 0 min 0 min 0 W/m 6,4 km/h (2 Bft) 97,92 %
06.10.2019 21:16 8,8 C 7,8 C 0,0 C 99 % 1010,8 hPa 0,0 l/m 0 min 0 min 0 W/m 6,4 km/h (2 Bft) 95,74 %
06.10.2019 21:18 8,8 C 7,8 C 0,0 C 99 % 1010,8 hPa 0,0 l/m 0 min 0 min 0 W/m 3,2 km/h (1 Bft) 100,00 %
06.10.2019 21:20 8,7 C 7,8 C 0,0 C 99 % 1010,7 hPa 0,0 l/m 0 min 0 min 0 W/m 9,7 km/h (2 Bft) 100,00 %
06.10.2019 21:22 8,7 C 7,8 C 0,0 C 99 % 1010,7 hPa 0,0 l/m 0 min 0 min 0 W/m 9,7 km/h (2 Bft) 95,74 %
06.10.2019 21:24 8,8 C 7,8 C 0,0 C 99 % 1010,8 hPa 0,0 l/m 0 min 0 min 0 W/m 12,9 km/h (3 Bft) 100,00 %
06.10.2019 21:26 8,8 C 7,8 C 0,0 C 99 % 1010,8 hPa 0,0 l/m 0 min 0 min 0 W/m 19,3 km/h (3 Bft) 97,83 %
06.10.2019 21:28 8,8 C 7,8 C 0,0 C 99 % 1010,9 hPa 0,0 l/m 0 min 0 min 0 W/m 6,4 km/h (2 Bft) 97,87 %
06.10.2019 21:30 8,7 C 7,8 C 0,0 C 99 % 1011,0 hPa 0,0 l/m 0 min 0 min 0 W/m 6,4 km/h (2 Bft) 100,00 %
06.10.2019 21:32 8,7 C 7,8 C 0,0 C 99 % 1010,9 hPa 0,0 l/m 0 min 0 min 0 W/m 6,4 km/h (2 Bft) 100,00 %
06.10.2019 21:34 8,8 C 7,8 C 0,0 C 99 % 1011,0 hPa 0,0 l/m 0 min 0 min 0 W/m 6,4 km/h (2 Bft) 97,37 %
06.10.2019 21:36 8,7 C 7,8 C 0,0 C 99 % 1011,0 hPa 0,0 l/m 0 min 0 min 0 W/m 6,4 km/h (2 Bft) 95,92 %
06.10.2019 21:38 8,7 C 7,8 C 0,0 C 99 % 1011,0 hPa 0,0 l/m 0 min 0 min 0 W/m 12,9 km/h (3 Bft) 100,00 %
06.10.2019 21:40 8,7 C 7,8 C 0,0 C 99 % 1011,0 hPa 0,0 l/m 0 min 0 min 0 W/m 12,9 km/h (3 Bft) 100,00 %
06.10.2019 21:42 8,7 C 7,8 C 0,0 C 99 % 1011,1 hPa 0,0 l/m 0 min 0 min 0 W/m 6,4 km/h (2 Bft) 98,15 %
06.10.2019 21:44 8,7 C 7,8 C 0,0 C 99 % 1011,1 hPa 0,0 l/m 0 min 0 min 0 W/m 9,7 km/h (2 Bft) 100,00 %
06.10.2019 21:46 8,7 C 7,8 C 0,0 C 99 % 1011,1 hPa 0,0 l/m 0 min 0 min 0 W/m 12,9 km/h (3 Bft) 97,83 %
06.10.2019 21:48 8,7 C 7,8 C 0,0 C 99 % 1011,2 hPa 0,0 l/m 0 min 0 min 0 W/m 6,4 km/h (2 Bft) 95,74 %
06.10.2019 21:50 8,7 C 7,8 C 0,0 C 99 % 1011,2 hPa 0,0 l/m 0 min 0 min 0 W/m 6,4 km/h (2 Bft) 97,87 %
06.10.2019 21:52 8,7 C 7,8 C 0,0 C 99 % 1011,2 hPa 0,0 l/m 0 min 0 min 0 W/m 12,9 km/h (3 Bft) 95,74 %
06.10.2019 21:54 8,7 C 7,8 C 0,0 C 99 % 1011,2 hPa 0,0 l/m 0 min 0 min 0 W/m 9,7 km/h (2 Bft) 97,87 %
06.10.2019 21:56 8,7 C 7,8 C 0,0 C 99 % 1011,2 hPa 0,0 l/m 0 min 0 min 0 W/m 9,7 km/h (2 Bft) 97,87 %
06.10.2019 21:58 8,7 C 7,8 C 0,0 C 99 % 1011,3 hPa 0,0 l/m 0 min 0 min 0 W/m 6,4 km/h (2 Bft) 97,83 %
06.10.2019 22:00 8,7 C 7,8 C 0,0 C 99 % 1011,3 hPa 0,0 l/m 0 min 0 min 0 W/m 6,4 km/h (2 Bft) 97,87 %
06.10.2019 22:02 8,7 C 7,8 C 0,0 C 99 % 1011,3 hPa 0,0 l/m 0 min 0 min 0 W/m 6,4 km/h (2 Bft) 97,92 %
06.10.2019 22:04 8,7 C 7,8 C 0,0 C 99 % 1011,3 hPa 0,0 l/m 0 min 0 min 0 W/m 6,4 km/h (2 Bft) 97,87 %
06.10.2019 22:06 8,7 C 7,8 C 0,0 C 99 % 1011,3 hPa 0,0 l/m 0 min 0 min 0 W/m 0,0 km/h (0 Bft) 98,15 %
06.10.2019 22:08 8,7 C 7,8 C 0,0 C 99 % 1011,3 hPa 0,0 l/m 0 min 0 min 0 W/m 9,7 km/h (2 Bft) 94,87 %
06.10.2019 22:10 8,7 C 7,8 C 0,0 C 99 % 1011,4 hPa 0,0 l/m 0 min 0 min 0 W/m 3,2 km/h (1 Bft) 95,83 %
06.10.2019 22:12 8,7 C 7,8 C 0,0 C 99 % 1011,5 hPa 0,0 l/m 0 min 0 min 0 W/m 6,4 km/h (2 Bft) 97,87 %
06.10.2019 22:14 8,7 C 7,8 C 0,0 C 99 % 1011,5 hPa 0,0 l/m 0 min 0 min 0 W/m 3,2 km/h (1 Bft) 96,36 %
06.10.2019 22:16 8,7 C 7,8 C 0,0 C 99 % 1011,5 hPa 0,0 l/m 0 min 0 min 0 W/m 6,4 km/h (2 Bft) 97,37 %
06.10.2019 22:18 8,7 C 7,8 C 0,0 C 99 % 1011,4 hPa 0,0 l/m 0 min 0 min 0 W/m 6,4 km/h (2 Bft) 95,74 %
06.10.2019 22:20 8,7 C 7,8 C 0,0 C 99 % 1011,4 hPa 0,0 l/m 0 min 0 min 0 W/m 6,4 km/h (2 Bft) 97,83 %
06.10.2019 22:22 8,7 C 7,8 C 0,0 C 99 % 1011,4 hPa 0,0 l/m 0 min 0 min 0 W/m 6,4 km/h (2 Bft) 95,74 %
06.10.2019 22:24 8,7 C 7,8 C 0,0 C 99 % 1011,4 hPa 0,0 l/m 0 min 0 min 0 W/m 6,4 km/h (2 Bft) 95,74 %
06.10.2019 22:26 8,7 C 7,8 C 0,0 C 99 % 1011,4 hPa 0,0 l/m 0 min 0 min 0 W/m 6,4 km/h (2 Bft) 95,74 %
06.10.2019 22:28 8,7 C 7,8 C 0,0 C 99 % 1011,4 hPa 0,0 l/m 0 min 0 min 0 W/m 3,2 km/h (1 Bft) 95,74 %
06.10.2019 22:30 8,7 C 7,8 C 0,0 C 99 % 1011,4 hPa 0,0 l/m 0 min 0 min 0 W/m 6,4 km/h (2 Bft) 95,74 %
06.10.2019 22:32 8,7 C 7,8 C 0,0 C 99 % 1011,5 hPa 0,0 l/m 0 min 0 min 0 W/m 9,7 km/h (2 Bft) 95,74 %
06.10.2019 22:34 8,7 C 7,8 C 0,0 C 99 % 1011,5 hPa 0,0 l/m 0 min 0 min 0 W/m 3,2 km/h (1 Bft) 96,36 %
06.10.2019 22:36 8,7 C 7,8 C 0,0 C 99 % 1011,6 hPa 0,0 l/m 0 min 0 min 0 W/m 6,4 km/h (2 Bft) 97,37 %
06.10.2019 22:38 8,7 C 7,8 C 0,0 C 99 % 1011,7 hPa 0,0 l/m 0 min 0 min 0 W/m 6,4 km/h (2 Bft) 98,00 %
06.10.2019 22:40 8,7 C 7,8 C 0,0 C 99 % 1011,8 hPa 0,0 l/m 0 min 0 min 0 W/m 3,2 km/h (1 Bft) 97,87 %
06.10.2019 22:42 8,7 C 7,8 C 0,0 C 99 % 1011,8 hPa 0,0 l/m 0 min 0 min 0 W/m 6,4 km/h (2 Bft) 97,87 %
06.10.2019 22:44 8,7 C 7,8 C 0,0 C 99 % 1012,0 hPa 0,0 l/m 0 min 0 min 0 W/m 6,4 km/h (2 Bft) 100,00 %
06.10.2019 22:46 8,7 C 7,8 C 0,0 C 99 % 1012,1 hPa 0,0 l/m 0 min 0 min 0 W/m 0,0 km/h (0 Bft) 95,74 %
06.10.2019 22:48 8,7 C 7,8 C 0,0 C 99 % 1012,1 hPa 0,0 l/m 0 min 0 min 0 W/m 3,2 km/h (1 Bft) 97,87 %
06.10.2019 22:50 8,7 C 7,8 C 0,0 C 99 % 1012,1 hPa 0,0 l/m 0 min 0 min 0 W/m 3,2 km/h (1 Bft) 96,00 %
06.10.2019 22:52 8,7 C 7,8 C 0,0 C 99 % 1012,2 hPa 0,0 l/m 0 min 0 min 0 W/m 6,4 km/h (2 Bft) 97,87 %
06.10.2019 22:54 8,7 C 7,8 C 0,0 C 99 % 1012,2 hPa 0,0 l/m 0 min 0 min 0 W/m 3,2 km/h (1 Bft) 97,87 %
06.10.2019 22:56 8,6 C 7,8 C 0,0 C 99 % 1012,2 hPa 0,0 l/m 0 min 0 min 0 W/m 3,2 km/h (1 Bft) 97,67 %
06.10.2019 22:58 8,6 C 7,8 C 0,0 C 99 % 1012,2 hPa 0,0 l/m 0 min 0 min 0 W/m 3,2 km/h (1 Bft) 93,62 %
06.10.2019 23:00 8,6 C 7,8 C 0,0 C 99 % 1012,2 hPa 0,0 l/m 0 min 0 min 0 W/m 3,2 km/h (1 Bft) 93,62 %
06.10.2019 23:02 8,6 C 7,8 C 0,0 C 99 % 1012,2 hPa 0,0 l/m 0 min 0 min 0 W/m 0,0 km/h (0 Bft) 95,74 %
06.10.2019 23:04 8,6 C 7,8 C 0,0 C 99 % 1012,2 hPa 0,0 l/m 0 min 0 min 0 W/m 6,4 km/h (2 Bft) 95,74 %
06.10.2019 23:06 8,6 C 7,8 C 0,0 C 99 % 1012,2 hPa 0,0 l/m 0 min 0 min 0 W/m 3,2 km/h (1 Bft) 95,65 %
06.10.2019 23:08 8,6 C 7,8 C 0,0 C 99 % 1012,2 hPa 0,0 l/m 0 min 0 min 0 W/m 6,4 km/h (2 Bft) 95,74 %
06.10.2019 23:10 8,6 C 7,8 C 0,0 C 99 % 1012,2 hPa 0,0 l/m 0 min 0 min 0 W/m 6,4 km/h (2 Bft) 95,74 %
06.10.2019 23:12 8,6 C 7,8 C 0,0 C 99 % 1012,2 hPa 0,0 l/m 0 min 0 min 0 W/m 6,4 km/h (2 Bft) 93,62 %
06.10.2019 23:14 8,6 C 7,8 C 0,0 C 99 % 1012,3 hPa 0,0 l/m 0 min 0 min 0 W/m 6,4 km/h (2 Bft) 95,74 %
06.10.2019 23:16 8,6 C 7,8 C 0,0 C 99 % 1012,4 hPa 0,0 l/m 0 min 0 min 0 W/m 3,2 km/h (1 Bft) 91,49 %
06.10.2019 23:18 8,6 C 7,8 C 0,0 C 99 % 1012,4 hPa 0,0 l/m 0 min 0 min 0 W/m 0,0 km/h (0 Bft) 93,48 %
06.10.2019 23:20 8,6 C 7,8 C 0,0 C 99 % 1012,4 hPa 0,0 l/m 0 min 0 min 0 W/m 0,0 km/h (0 Bft) 95,74 %
06.10.2019 23:22 8,6 C 7,8 C 0,0 C 99 % 1012,4 hPa 0,0 l/m 0 min 0 min 0 W/m 0,0 km/h (0 Bft) 95,74 %
06.10.2019 23:24 8,6 C 7,8 C 0,0 C 99 % 1012,4 hPa 0,0 l/m 0 min 0 min 0 W/m 0,0 km/h (0 Bft) 97,87 %
06.10.2019 23:26 8,6 C 7,8 C 0,0 C 99 % 1012,4 hPa 0,0 l/m 0 min 0 min 0 W/m 6,4 km/h (2 Bft) 95,74 %
06.10.2019 23:28 8,6 C 7,8 C 0,0 C 99 % 1012,4 hPa 0,0 l/m 0 min 0 min 0 W/m 3,2 km/h (1 Bft) 97,87 %
06.10.2019 23:30 8,5 C 7,8 C 0,0 C 99 % 1012,4 hPa 0,0 l/m 0 min 0 min 0 W/m 3,2 km/h (1 Bft) 97,83 %
06.10.2019 23:32 8,6 C 7,8 C 0,0 C 99 % 1012,5 hPa 0,0 l/m 0 min 0 min 0 W/m 6,4 km/h (2 Bft) 95,74 %
06.10.2019 23:34 8,5 C 7,8 C 0,0 C 99 % 1012,5 hPa 0,0 l/m 0 min 0 min 0 W/m 3,2 km/h (1 Bft) 95,74 %
06.10.2019 23:36 8,5 C 7,8 C 0,0 C 99 % 1012,5 hPa 0,0 l/m 0 min 0 min 0 W/m 0,0 km/h (0 Bft) 95,74 %
06.10.2019 23:38 8,5 C 7,8 C 0,0 C 99 % 1012,5 hPa 0,0 l/m 0 min 0 min 0 W/m 3,2 km/h (1 Bft) 97,87 %
06.10.2019 23:40 8,5 C 7,8 C 0,0 C 99 % 1012,5 hPa 0,0 l/m 0 min 0 min 0 W/m 6,4 km/h (2 Bft) 97,87 %
06.10.2019 23:42 8,5 C 7,8 C 0,0 C 99 % 1012,5 hPa 0,0 l/m 0 min 0 min 0 W/m 3,2 km/h (1 Bft) 95,65 %
06.10.2019 23:44 8,5 C 7,8 C 0,0 C 99 % 1012,6 hPa 0,0 l/m 0 min 0 min 0 W/m 3,2 km/h (1 Bft) 100,00 %
06.10.2019 23:46 8,5 C 7,8 C 0,0 C 99 % 1012,7 hPa 0,0 l/m 0 min 0 min 0 W/m 3,2 km/h (1 Bft) 97,87 %
06.10.2019 23:48 8,5 C 7,8 C 0,0 C 99 % 1012,8 hPa 0,0 l/m 0 min 0 min 0 W/m 6,4 km/h (2 Bft) 100,00 %
06.10.2019 23:50 8,5 C 7,8 C 0,0 C 99 % 1012,9 hPa 0,0 l/m 0 min 0 min 0 W/m 3,2 km/h (1 Bft) 100,00 %
06.10.2019 23:52 8,5 C 7,8 C 0,0 C 99 % 1013,0 hPa 0,0 l/m 0 min 0 min 0 W/m 6,4 km/h (2 Bft) 100,00 %
06.10.2019 23:54 8,5 C 7,8 C 0,0 C 99 % 1013,0 hPa 0,0 l/m 0 min 0 min 0 W/m 3,2 km/h (1 Bft) 97,83 %
06.10.2019 23:56 8,4 C 7,8 C 0,0 C 99 % 1013,0 hPa 0,0 l/m 0 min 0 min 0 W/m 3,2 km/h (1 Bft) 97,87 %
06.10.2019 23:58 8,4 C 7,8 C 0,0 C 99 % 1012,9 hPa 0,0 l/m 0 min 0 min 0 W/m 3,2 km/h (1 Bft) 100,00 %
_ Min-Zeit 11:14 09:14 00:00 08:54 17:12 - - - - 00:00 13:30
Minimum _ 8,3 C 6,7 C 0,0 C 83 % 1009,5 hPa - - - - 0,0 km/h (0 Bft) 59,57 %
_ Max-Zeit 08:58 01:52 00:00 15:44 00:00 18:56 00:00 10:08 12:58 11:54 00:12
Maximum _ 9,6 C 8,9 C 0,0 C 99 % 1019,3 hPa 0,4 l/m 0 min 4 min 134 W/m 48,3 km/h
O (6 Bft)
100,00 %
Durchschnitt _ 8,9 C 7,9 C 0,0 C 93 % 1013,7 hPa #20,4 l/m #0 min. #9:44 h 42 W/m 16,8 km/h (3 Bft) 97,37 %
© 2019 W. Hausmann